Time,TemperatureF,DewpointF,PressureIn,WindDirection,WindDirectionDegrees,WindSpeedMPH,WindSpeedGustMPH,Humidity,HourlyPrecipIn,Conditions,Clouds,dailyrainin,SoftwareType,DateUTC
2013-05-28 00:00:00,51.7,-99.9,-100.00,SSE,156,0.0,0.0,-999,0.00,,---,0.00,VWS V14.01,2013-05-28 04:00:00,
2013-05-28 00:01:00,51.7,-99.9,-100.00,SSE,156,0.0,0.0,-999,0.00,,---,0.00,VWS V14.01,2013-05-28 04:01:00,
2013-05-28 00:06:00,51.7,-99.9,-100.00,SSE,156,0.0,0.0,-999,0.00,,---,0.00,VWS V14.01,2013-05-28 04:06:00,
2013-05-28 00:11:00,51.7,-99.9,-100.00,SSE,156,0.0,0.0,-999,0.00,,---,0.00,VWS V14.01,2013-05-28 04:11:00,
2013-05-28 00:16:00,51.4,-99.9,-100.00,SSE,156,0.0,0.0,-999,0.00,,---,0.01,VWS V14.01,2013-05-28 04:16:00,
2013-05-28 00:17:00,51.7,-99.9,-100.00,SSE,156,0.0,0.0,-999,0.00,,---,0.01,VWS V14.01,2013-05-28 04:17:00,
2013-05-28 00:21:00,51.4,-99.9,-100.00,SSE,156,0.0,0.0,-999,0.00,,---,0.01,VWS V14.01,2013-05-28 04:21:00,
2013-05-28 00:22:00,51.4,-99.9,-100.00,SSE,156,0.0,0.0,-999,0.00,,---,0.01,VWS V14.01,2013-05-28 04:22:00,
2013-05-28 00:26:00,51.7,-99.9,-100.00,SSE,156,0.0,0.0,-999,0.00,,---,0.01,VWS V14.01,2013-05-28 04:26:00,
2013-05-28 00:27:00,51.4,-99.9,-100.00,SSE,156,0.0,0.0,-999,0.00,,---,0.01,VWS V14.01,2013-05-28 04:27:00,
2013-05-28 00:31:00,51.7,-99.9,-100.00,SSE,156,0.0,0.0,-999,0.00,,---,0.01,VWS V14.01,2013-05-28 04:31:00,
2013-05-28 00:32:00,51.4,-99.9,-100.00,SSE,156,0.0,0.0,-999,0.00,,---,0.01,VWS V14.01,2013-05-28 04:32:00,
2013-05-28 00:36:00,51.4,-99.9,-100.00,SSE,156,0.0,0.0,-999,0.00,,---,0.01,VWS V14.01,2013-05-28 04:36:00,
2013-05-28 00:37:00,51.4,-99.9,-100.00,SSE,156,0.0,0.0,-999,0.00,,---,0.01,VWS V14.01,2013-05-28 04:37:00,
2013-05-28 00:41:00,51.2,-99.9,-100.00,SSE,156,0.0,0.0,-999,0.00,,---,0.01,VWS V14.01,2013-05-28 04:41:00,
2013-05-28 00:42:00,51.2,-99.9,-100.00,SSE,156,0.0,0.0,-999,0.00,,---,0.01,VWS V14.01,2013-05-28 04:42:00,
2013-05-28 00:46:00,50.9,-99.9,-100.00,SSE,156,0.0,0.0,-999,0.00,,---,0.01,VWS V14.01,2013-05-28 04:46:00,
2013-05-28 00:47:00,51.2,-99.9,-100.00,SSE,156,0.0,0.0,-999,0.00,,---,0.01,VWS V14.01,2013-05-28 04:47:00,
2013-05-28 00:52:00,51.2,-99.9,-100.00,SSE,156,0.0,0.0,-999,0.00,,---,0.01,VWS V14.01,2013-05-28 04:52:00,
2013-05-28 00:57:00,51.7,-99.9,-100.00,SSE,156,0.0,0.0,-999,0.00,,---,0.02,VWS V14.01,2013-05-28 04:57:00,
2013-05-28 01:02:00,51.2,-99.9,-100.00,SSE,156,0.0,0.0,-999,0.00,,---,0.02,VWS V14.01,2013-05-28 05:02:00,
2013-05-28 01:07:00,51.2,-99.9,-100.00,SSE,156,0.0,0.0,-999,0.00,,---,0.02,VWS V14.01,2013-05-28 05:07:00,
2013-05-28 01:12:00,51.2,-99.9,-100.00,SSE,156,0.0,0.0,-999,0.00,,---,0.02,VWS V14.01,2013-05-28 05:12:00,
2013-05-28 01:17:00,51.2,-99.9,-100.00,SSE,156,0.0,0.0,-999,0.00,,---,0.02,VWS V14.01,2013-05-28 05:17:00,
2013-05-28 01:22:00,51.2,-99.9,-100.00,SSE,156,0.0,0.0,-999,0.00,,---,0.03,VWS V14.01,2013-05-28 05:22:00,
2013-05-28 01:23:00,51.7,-99.9,-100.00,SSE,156,0.0,0.0,-999,0.00,,---,0.03,VWS V14.01,2013-05-28 05:23:00,
2013-05-28 01:27:00,51.4,-99.9,-100.00,SSE,156,0.0,0.0,-999,0.00,,---,0.03,VWS V14.01,2013-05-28 05:27:00,
2013-05-28 01:28:00,50.9,-99.9,-100.00,SSE,156,0.0,0.0,-999,0.00,,---,0.03,VWS V14.01,2013-05-28 05:28:00,
2013-05-28 01:32:00,50.9,-99.9,-100.00,SSE,156,0.0,0.0,-999,0.00,,---,0.04,VWS V14.01,2013-05-28 05:32:00,
2013-05-28 01:33:00,50.9,-99.9,-100.00,SSE,156,0.0,0.0,-999,0.00,,---,0.04,VWS V14.01,2013-05-28 05:33:00,
2013-05-28 01:37:00,50.9,-99.9,-100.00,SSE,156,0.0,0.0,-999,0.00,,---,0.05,VWS V14.01,2013-05-28 05:37:00,
2013-05-28 01:38:00,50.9,-99.9,-100.00,SSE,156,0.0,0.0,-999,0.00,,---,0.05,VWS V14.01,2013-05-28 05:38:00,
2013-05-28 01:42:00,50.9,-99.9,-100.00,SSE,156,0.0,0.0,-999,0.00,,---,0.08,VWS V14.01,2013-05-28 05:42:00,
2013-05-28 01:43:00,50.9,-99.9,-100.00,SSE,156,0.0,0.0,-999,0.00,,---,0.08,VWS V14.01,2013-05-28 05:43:00,
2013-05-28 01:47:00,51.2,-99.9,-100.00,SSE,156,0.0,0.0,-999,0.00,,---,0.10,VWS V14.01,2013-05-28 05:47:00,
2013-05-28 01:48:00,51.2,-99.9,-100.00,SSE,156,0.0,0.0,-999,0.00,,---,0.10,VWS V14.01,2013-05-28 05:48:00,
2013-05-28 01:49:00,50.9,-99.9,-100.00,SSE,156,0.0,0.0,-999,0.00,,---,0.10,VWS V14.01,2013-05-28 05:49:00,
2013-05-28 01:52:00,50.9,-99.9,-100.00,SSE,156,0.0,0.0,-999,0.00,,---,0.14,VWS V14.01,2013-05-28 05:52:00,
2013-05-28 01:53:00,50.9,-99.9,-100.00,SSE,156,0.0,0.0,-999,0.00,,---,0.15,VWS V14.01,2013-05-28 05:53:00,
2013-05-28 01:54:00,51.4,-99.9,-100.00,SSE,156,0.0,0.0,-999,0.00,,---,0.17,VWS V14.01,2013-05-28 05:54:00,
2013-05-28 01:57:00,51.2,-99.9,-100.00,SSE,156,0.0,0.0,-999,0.00,,---,0.21,VWS V14.01,2013-05-28 05:57:00,
2013-05-28 01:58:00,51.4,-99.9,-100.00,SSE,156,0.0,0.0,-999,0.00,,---,0.21,VWS V14.01,2013-05-28 05:58:00,
2013-05-28 01:59:00,51.2,-99.9,-100.00,SSE,156,0.0,0.0,-999,0.00,,---,0.22,VWS V14.01,2013-05-28 05:59:00,
2013-05-28 02:02:00,50.9,-99.9,-100.00,SSE,156,0.0,0.0,-999,0.00,,---,0.23,VWS V14.01,2013-05-28 06:02:00,
2013-05-28 02:03:00,50.9,-99.9,-100.00,SSE,156,0.0,0.0,-999,0.00,,---,0.23,VWS V14.01,2013-05-28 06:03:00,
2013-05-28 02:04:00,50.9,-99.9,-100.00,SSE,156,0.0,0.0,-999,0.00,,---,0.23,VWS V14.01,2013-05-28 06:04:00,
2013-05-28 02:07:00,51.2,-99.9,-100.00,SSE,156,0.0,0.0,-999,0.00,,---,0.24,VWS V14.01,2013-05-28 06:07:00,
2013-05-28 02:08:00,50.9,-99.9,-100.00,SSE,156,0.0,0.0,-999,0.00,,---,0.24,VWS V14.01,2013-05-28 06:08:00,
2013-05-28 02:09:00,50.9,-99.9,-100.00,SSE,156,0.0,0.0,-999,0.00,,---,0.24,VWS V14.01,2013-05-28 06:09:00,
2013-05-28 02:12:00,50.9,-99.9,-100.00,SSE,156,0.0,0.0,-999,0.00,,---,0.25,VWS V14.01,2013-05-28 06:12:00,
2013-05-28 02:13:00,51.2,-99.9,-100.00,SSE,156,0.0,0.0,-999,0.00,,---,0.25,VWS V14.01,2013-05-28 06:13:00,
2013-05-28 02:14:00,51.4,-99.9,-100.00,SSE,156,0.0,0.0,-999,0.00,,---,0.25,VWS V14.01,2013-05-28 06:14:00,
2013-05-28 02:18:00,51.2,-99.9,-100.00,SSE,156,0.0,0.0,-999,0.00,,---,0.27,VWS V14.01,2013-05-28 06:18:00,
2013-05-28 02:19:00,51.2,-99.9,-100.00,SSE,156,0.0,0.0,-999,0.00,,---,0.27,VWS V14.01,2013-05-28 06:19:00,
2013-05-28 02:20:00,50.9,-99.9,-100.00,SSE,156,0.0,0.0,-999,0.00,,---,0.27,VWS V14.01,2013-05-28 06:20:00,
2013-05-28 02:23:00,50.9,-99.9,-100.00,SSE,156,0.0,0.0,-999,0.00,,---,0.28,VWS V14.01,2013-05-28 06:23:00,
2013-05-28 02:24:00,50.9,-99.9,-100.00,SSE,156,0.0,0.0,-999,0.00,,---,0.28,VWS V14.01,2013-05-28 06:24:00,
2013-05-28 02:25:00,50.9,-99.9,-100.00,SSE,156,0.0,0.0,-999,0.00,,---,0.28,VWS V14.01,2013-05-28 06:25:00,
2013-05-28 02:28:00,50.9,-99.9,-100.00,SSE,156,0.0,0.0,-999,0.00,,---,0.29,VWS V14.01,2013-05-28 06:28:00,
2013-05-28 02:29:00,51.2,-99.9,-100.00,SSE,156,0.0,0.0,-999,0.00,,---,0.29,VWS V14.01,2013-05-28 06:29:00,
2013-05-28 02:30:00,51.4,-99.9,-100.00,SSE,156,0.0,0.0,-999,0.00,,---,0.29,VWS V14.01,2013-05-28 06:30:00,
2013-05-28 02:33:00,50.9,-99.9,-100.00,SSE,156,0.0,0.0,-999,0.00,,---,0.30,VWS V14.01,2013-05-28 06:33:00,
2013-05-28 02:34:00,50.9,-99.9,-100.00,SSE,156,0.0,0.0,-999,0.00,,---,0.30,VWS V14.01,2013-05-28 06:34:00,
2013-05-28 02:36:00,51.2,-99.9,-100.00,SSE,156,0.0,0.0,-999,0.00,,---,0.31,VWS V14.01,2013-05-28 06:36:00,
2013-05-28 02:38:00,51.2,-99.9,-100.00,SSE,156,0.0,0.0,-999,0.00,,---,0.32,VWS V14.01,2013-05-28 06:38:00,
2013-05-28 02:39:00,50.9,-99.9,-100.00,SSE,156,0.0,0.0,-999,0.00,,---,0.32,VWS V14.01,2013-05-28 06:39:00,
2013-05-28 02:40:00,50.9,-99.9,-100.00,SSE,156,0.0,0.0,-999,0.00,,---,0.32,VWS V14.01,2013-05-28 06:40:00,
2013-05-28 02:41:00,50.9,-99.9,-100.00,SSE,156,0.0,0.0,-999,0.00,,---,0.32,VWS V14.01,2013-05-28 06:41:00,
2013-05-28 02:44:00,50.9,-99.9,-100.00,SSE,156,0.0,0.0,-999,0.00,,---,0.33,VWS V14.01,2013-05-28 06:44:00,
2013-05-28 02:45:00,51.2,-99.9,-100.00,SSE,156,0.0,0.0,-999,0.00,,---,0.33,VWS V14.01,2013-05-28 06:45:00,
2013-05-28 02:46:00,50.9,-99.9,-100.00,SSE,156,0.0,0.0,-999,0.00,,---,0.33,VWS V14.01,2013-05-28 06:46:00,
2013-05-28 02:49:00,50.9,-99.9,-100.00,SSE,156,0.0,0.0,-999,0.00,,---,0.33,VWS V14.01,2013-05-28 06:49:00,
2013-05-28 02:50:00,50.9,-99.9,-100.00,SSE,156,0.0,0.0,-999,0.00,,---,0.33,VWS V14.01,2013-05-28 06:50:00,
2013-05-28 02:51:00,51.2,-99.9,-100.00,SSE,156,0.0,0.0,-999,0.00,,---,0.34,VWS V14.01,2013-05-28 06:51:00,
2013-05-28 02:54:00,50.9,-99.9,-100.00,SSE,156,0.0,0.0,-999,0.00,,---,0.34,VWS V14.01,2013-05-28 06:54:00,
2013-05-28 02:55:00,51.2,-99.9,-100.00,SSE,156,0.0,0.0,-999,0.00,,---,0.35,VWS V14.01,2013-05-28 06:55:00,
2013-05-28 02:56:00,51.2,-99.9,-100.00,SSE,156,0.0,0.0,-999,0.00,,---,0.35,VWS V14.01,2013-05-28 06:56:00,
2013-05-28 02:59:00,51.2,-99.9,-100.00,SSE,156,0.0,0.0,-999,0.00,,---,0.35,VWS V14.01,2013-05-28 06:59:00,
2013-05-28 03:00:00,51.4,-99.9,-100.00,SSE,156,0.0,0.0,-999,0.00,,---,0.35,VWS V14.01,2013-05-28 07:00:00,
2013-05-28 03:02:00,51.2,-99.9,-100.00,SSE,156,0.0,0.0,-999,0.00,,---,0.35,VWS V14.01,2013-05-28 07:02:00,
2013-05-28 03:04:00,51.4,-99.9,-100.00,SSE,156,0.0,0.0,-999,0.00,,---,0.36,VWS V14.01,2013-05-28 07:04:00,
2013-05-28 03:05:00,51.2,-99.9,-100.00,SSE,156,0.0,0.0,-999,0.00,,---,0.36,VWS V14.01,2013-05-28 07:05:00,
2013-05-28 03:07:00,51.4,-99.9,-100.00,SSE,156,0.0,0.0,-999,0.00,,---,0.36,VWS V14.01,2013-05-28 07:07:00,
2013-05-28 03:09:00,50.9,-99.9,-100.00,SSE,156,0.0,0.0,-999,0.00,,---,0.36,VWS V14.01,2013-05-28 07:09:00,
2013-05-28 03:10:00,51.2,-99.9,-100.00,SSE,156,0.0,0.0,-999,0.00,,---,0.36,VWS V14.01,2013-05-28 07:10:00,
2013-05-28 03:12:00,51.2,-99.9,-100.00,SSE,156,0.0,0.0,-999,0.00,,---,0.36,VWS V14.01,2013-05-28 07:12:00,
2013-05-28 03:14:00,51.7,-99.9,-100.00,SSE,156,0.0,0.0,-999,0.00,,---,0.36,VWS V14.01,2013-05-28 07:14:00,
2013-05-28 03:15:00,51.2,-99.9,-100.00,SSE,156,0.0,0.0,-999,0.00,,---,0.36,VWS V14.01,2013-05-28 07:15:00,
2013-05-28 03:17:00,51.7,-99.9,-100.00,SSE,156,0.0,0.0,-999,0.00,,---,0.37,VWS V14.01,2013-05-28 07:17:00,
2013-05-28 03:19:00,51.7,-99.9,-100.00,SSE,156,0.0,0.0,-999,0.00,,---,0.37,VWS V14.01,2013-05-28 07:19:00,
2013-05-28 03:20:00,51.7,-99.9,-100.00,SSE,156,0.0,0.0,-999,0.00,,---,0.37,VWS V14.01,2013-05-28 07:20:00,
2013-05-28 03:21:00,51.4,-99.9,-100.00,SSE,156,0.0,0.0,-999,0.00,,---,0.37,VWS V14.01,2013-05-28 07:21:00,
2013-05-28 03:22:00,51.7,-99.9,-100.00,SSE,156,0.0,0.0,-999,0.00,,---,0.37,VWS V14.01,2013-05-28 07:22:00,
2013-05-28 03:24:00,51.2,-99.9,-100.00,SSE,156,0.0,0.0,-999,0.00,,---,0.37,VWS V14.01,2013-05-28 07:24:00,
2013-05-28 03:25:00,51.7,-99.9,-100.00,SSE,156,0.0,0.0,-999,0.00,,---,0.37,VWS V14.01,2013-05-28 07:25:00,
2013-05-28 03:26:00,51.2,-99.9,-100.00,SSE,156,0.0,0.0,-999,0.00,,---,0.37,VWS V14.01,2013-05-28 07:26:00,
2013-05-28 03:27:00,51.7,-99.9,-100.00,SSE,156,0.0,0.0,-999,0.00,,---,0.37,VWS V14.01,2013-05-28 07:27:00,
2013-05-28 03:29:00,51.7,-99.9,-100.00,SSE,156,0.0,0.0,-999,0.00,,---,0.37,VWS V14.01,2013-05-28 07:29:00,
2013-05-28 03:30:00,51.7,-99.9,-100.00,SSE,156,0.0,0.0,-999,0.00,,---,0.37,VWS V14.01,2013-05-28 07:30:00,
2013-05-28 03:31:00,51.7,-99.9,-100.00,SSE,156,0.0,0.0,-999,0.00,,---,0.37,VWS V14.01,2013-05-28 07:31:00,
2013-05-28 03:32:00,51.7,-99.9,-100.00,SSE,156,0.0,0.0,-999,0.00,,---,0.37,VWS V14.01,2013-05-28 07:32:00,
2013-05-28 03:34:00,51.7,-99.9,-100.00,SSE,156,0.0,0.0,-999,0.00,,---,0.37,VWS V14.01,2013-05-28 07:34:00,
2013-05-28 03:35:00,51.2,-99.9,-100.00,SSE,156,0.0,0.0,-999,0.00,,---,0.38,VWS V14.01,2013-05-28 07:35:00,
2013-05-28 03:36:00,51.7,-99.9,-100.00,SSE,156,0.0,0.0,-999,0.00,,---,0.38,VWS V14.01,2013-05-28 07:36:00,
2013-05-28 03:37:00,51.7,-99.9,-100.00,SSE,156,0.0,0.0,-999,0.00,,---,0.38,VWS V14.01,2013-05-28 07:37:00,
2013-05-28 03:39:00,51.7,-99.9,-100.00,SSE,156,0.0,0.0,-999,0.00,,---,0.38,VWS V14.01,2013-05-28 07:39:00,
2013-05-28 03:40:00,51.7,-99.9,-100.00,SSE,156,0.0,0.0,-999,0.00,,---,0.38,VWS V14.01,2013-05-28 07:40:00,
2013-05-28 03:41:00,51.7,-99.9,-100.00,SSE,156,0.0,0.0,-999,0.00,,---,0.38,VWS V14.01,2013-05-28 07:41:00,
2013-05-28 03:42:00,51.7,-99.9,-100.00,SSE,156,0.0,0.0,-999,0.00,,---,0.38,VWS V14.01,2013-05-28 07:42:00,
2013-05-28 03:44:00,52.0,-99.9,-100.00,SSE,156,0.0,0.0,-999,0.00,,---,0.38,VWS V14.01,2013-05-28 07:44:00,
2013-05-28 03:45:00,51.7,-99.9,-100.00,SSE,156,0.0,0.0,-999,0.00,,---,0.38,VWS V14.01,2013-05-28 07:45:00,
2013-05-28 03:46:00,51.7,-99.9,-100.00,SSE,156,0.0,0.0,-999,0.00,,---,0.38,VWS V14.01,2013-05-28 07:46:00,
2013-05-28 03:47:00,51.7,-99.9,-100.00,SSE,156,0.0,0.0,-999,0.00,,---,0.38,VWS V14.01,2013-05-28 07:47:00,
2013-05-28 03:49:00,51.7,-99.9,-100.00,SSE,156,0.0,0.0,-999,0.00,,---,0.38,VWS V14.01,2013-05-28 07:49:00,
2013-05-28 03:50:00,52.0,-99.9,-100.00,SSE,156,0.0,0.0,-999,0.00,,---,0.38,VWS V14.01,2013-05-28 07:50:00,
2013-05-28 03:51:00,51.7,-99.9,-100.00,SSE,156,0.0,0.0,-999,0.00,,---,0.38,VWS V14.01,2013-05-28 07:51:00,
2013-05-28 03:52:00,52.0,-99.9,-100.00,SSE,156,0.0,0.0,-999,0.00,,---,0.38,VWS V14.01,2013-05-28 07:52:00,
2013-05-28 03:55:00,51.7,-99.9,-100.00,SSE,156,0.0,0.0,-999,0.00,,---,0.38,VWS V14.01,2013-05-28 07:55:00,
2013-05-28 03:56:00,51.7,-99.9,-100.00,SSE,156,0.0,0.0,-999,0.00,,---,0.38,VWS V14.01,2013-05-28 07:56:00,
2013-05-28 03:57:00,52.0,-99.9,-100.00,SSE,156,0.0,0.0,-999,0.00,,---,0.38,VWS V14.01,2013-05-28 07:57:00,
2013-05-28 04:01:00,51.7,-99.9,-100.00,SSE,156,0.0,0.0,-999,0.00,,---,0.38,VWS V14.01,2013-05-28 08:01:00,
2013-05-28 04:02:00,52.4,-99.9,-100.00,SSE,156,0.0,0.0,-999,0.00,,---,0.38,VWS V14.01,2013-05-28 08:02:00,
2013-05-28 04:06:00,52.2,-99.9,-100.00,SSE,156,0.0,0.0,-999,0.00,,---,0.38,VWS V14.01,2013-05-28 08:06:00,
2013-05-28 04:07:00,51.7,-99.9,-100.00,SSE,156,0.0,0.0,-999,0.00,,---,0.39,VWS V14.01,2013-05-28 08:07:00,
2013-05-28 04:11:00,51.7,-99.9,-100.00,SSE,156,0.0,0.0,-999,0.00,,---,0.39,VWS V14.01,2013-05-28 08:11:00,
2013-05-28 04:12:00,52.2,-99.9,-100.00,SSE,156,0.0,0.0,-999,0.00,,---,0.39,VWS V14.01,2013-05-28 08:12:00,
2013-05-28 04:13:00,52.2,-99.9,-100.00,SSE,156,0.0,0.0,-999,0.00,,---,0.39,VWS V14.01,2013-05-28 08:13:00,
2013-05-28 04:16:00,52.2,-99.9,-100.00,SSE,156,0.0,0.0,-999,0.00,,---,0.39,VWS V14.01,2013-05-28 08:16:00,
2013-05-28 04:17:00,52.4,-99.9,-100.00,SSE,156,0.0,0.0,-999,0.00,,---,0.39,VWS V14.01,2013-05-28 08:17:00,
2013-05-28 04:18:00,52.3,-99.9,-100.00,SSE,156,0.0,0.0,-999,0.00,,---,0.39,VWS V14.01,2013-05-28 08:18:00,
2013-05-28 04:21:00,51.4,-99.9,-100.00,SSE,156,0.0,0.0,-999,0.00,,---,0.40,VWS V14.01,2013-05-28 08:21:00,
2013-05-28 04:22:00,52.3,-99.9,-100.00,SSE,156,0.0,0.0,-999,0.00,,---,0.40,VWS V14.01,2013-05-28 08:22:00,
2013-05-28 04:23:00,52.1,-99.9,-100.00,SSE,156,0.0,0.0,-999,0.00,,---,0.40,VWS V14.01,2013-05-28 08:23:00,
2013-05-28 04:26:00,52.3,-99.9,-100.00,SSE,156,0.0,0.0,-999,0.00,,---,0.40,VWS V14.01,2013-05-28 08:26:00,
2013-05-28 04:27:00,52.3,-99.9,-100.00,SSE,156,0.0,0.0,-999,0.00,,---,0.40,VWS V14.01,2013-05-28 08:27:00,
2013-05-28 04:28:00,52.1,-99.9,-100.00,SSE,156,0.0,0.0,-999,0.00,,---,0.40,VWS V14.01,2013-05-28 08:28:00,
2013-05-28 04:31:00,52.2,-99.9,-100.00,SSE,156,0.0,0.0,-999,0.00,,---,0.40,VWS V14.01,2013-05-28 08:31:00,
2013-05-28 04:32:00,52.4,-99.9,-100.00,SSE,156,0.0,0.0,-999,0.00,,---,0.40,VWS V14.01,2013-05-28 08:32:00,
2013-05-28 04:33:00,51.9,-99.9,-100.00,SSE,156,0.0,0.0,-999,0.00,,---,0.40,VWS V14.01,2013-05-28 08:33:00,
2013-05-28 04:37:00,52.1,-99.9,-100.00,SSE,156,0.0,0.0,-999,0.00,,---,0.42,VWS V14.01,2013-05-28 08:37:00,
2013-05-28 04:38:00,52.1,-99.9,-100.00,SSE,156,0.0,0.0,-999,0.00,,---,0.43,VWS V14.01,2013-05-28 08:38:00,
2013-05-28 04:42:00,52.3,-99.9,-100.00,SSE,156,0.0,0.0,-999,0.00,,---,0.45,VWS V14.01,2013-05-28 08:42:00,
2013-05-28 04:43:00,52.3,-99.9,-100.00,SSE,156,0.0,0.0,-999,0.00,,---,0.46,VWS V14.01,2013-05-28 08:43:00,
2013-05-28 04:47:00,52.3,-99.9,-100.00,SSE,156,0.0,0.0,-999,0.00,,---,0.49,VWS V14.01,2013-05-28 08:47:00,
2013-05-28 04:48:00,52.1,-99.9,-100.00,SSE,156,0.0,0.0,-999,0.00,,---,0.50,VWS V14.01,2013-05-28 08:48:00,
2013-05-28 04:52:00,52.1,-99.9,-100.00,SSE,156,0.0,0.0,-999,0.00,,---,0.52,VWS V14.01,2013-05-28 08:52:00,
2013-05-28 04:53:00,52.1,-99.9,-100.00,SSE,156,0.0,0.0,-999,0.00,,---,0.53,VWS V14.01,2013-05-28 08:53:00,
2013-05-28 04:57:00,52.1,-99.9,-100.00,SSE,156,0.0,0.0,-999,0.00,,---,0.54,VWS V14.01,2013-05-28 08:57:00,
2013-05-28 04:58:00,52.1,-99.9,-100.00,SSE,156,0.0,0.0,-999,0.00,,---,0.55,VWS V14.01,2013-05-28 08:58:00,
2013-05-28 04:59:00,52.1,-99.9,-100.00,SSE,156,0.0,0.0,-999,0.00,,---,0.55,VWS V14.01,2013-05-28 08:59:00,
2013-05-28 05:02:00,52.1,-99.9,-100.00,SSE,156,0.0,0.0,-999,0.00,,---,0.57,VWS V14.01,2013-05-28 09:02:00,
2013-05-28 05:03:00,52.3,-99.9,-100.00,NE,34,0.0,6.2,-999,0.00,,---,0.57,VWS V14.01,2013-05-28 09:03:00,
2013-05-28 05:04:00,52.3,-99.9,-100.00,NE,34,0.0,1.5,-999,0.00,,---,0.58,VWS V14.01,2013-05-28 09:04:00,
2013-05-28 05:07:00,52.1,-99.9,-100.00,NE,56,0.0,0.0,-999,0.00,,---,0.59,VWS V14.01,2013-05-28 09:07:00,
2013-05-28 05:08:00,52.1,-99.9,-100.00,NE,56,0.0,0.0,-999,0.00,,---,0.59,VWS V14.01,2013-05-28 09:08:00,
2013-05-28 05:09:00,52.3,-99.9,-100.00,NE,56,0.0,0.0,-999,0.00,,---,0.60,VWS V14.01,2013-05-28 09:09:00,
2013-05-28 05:12:00,52.1,-99.9,-100.00,NE,56,0.0,0.0,-999,0.00,,---,0.61,VWS V14.01,2013-05-28 09:12:00,
2013-05-28 05:13:00,52.7,-99.9,-100.00,NE,56,0.0,0.0,-999,0.00,,---,0.61,VWS V14.01,2013-05-28 09:13:00,
2013-05-28 05:14:00,52.7,-99.9,-100.00,NE,56,0.0,0.0,-999,0.00,,---,0.61,VWS V14.01,2013-05-28 09:14:00,
2013-05-28 05:17:00,52.7,-99.9,-100.00,ESE,110,0.0,0.0,-999,0.00,,---,0.62,VWS V14.01,2013-05-28 09:17:00,
2013-05-28 05:18:00,52.7,-99.9,-100.00,ESE,110,0.0,0.0,-999,0.00,,---,0.63,VWS V14.01,2013-05-28 09:18:00,
2013-05-28 05:19:00,52.7,-99.9,-100.00,ESE,110,0.0,0.0,-999,0.00,,---,0.63,VWS V14.01,2013-05-28 09:19:00,
2013-05-28 05:22:00,52.7,-99.9,-100.00,ESE,110,0.0,0.0,-999,0.00,,---,0.63,VWS V14.01,2013-05-28 09:22:00,
2013-05-28 05:23:00,52.7,-99.9,-100.00,ESE,110,0.0,0.0,-999,0.00,,---,0.63,VWS V14.01,2013-05-28 09:23:00,
2013-05-28 05:24:00,52.3,-99.9,-100.00,ESE,110,0.0,0.0,-999,0.00,,---,0.64,VWS V14.01,2013-05-28 09:24:00,
2013-05-28 05:28:00,52.9,-99.9,-100.00,ESE,110,0.0,5.7,-999,0.00,,---,0.64,VWS V14.01,2013-05-28 09:28:00,
2013-05-28 05:29:00,52.9,-99.9,-100.00,ESE,110,0.0,0.0,-999,0.00,,---,0.64,VWS V14.01,2013-05-28 09:29:00,
2013-05-28 05:33:00,52.9,-99.9,-100.00,ESE,110,0.0,0.0,-999,0.00,,---,0.64,VWS V14.01,2013-05-28 09:33:00,
2013-05-28 05:34:00,52.9,-99.9,-100.00,ESE,110,0.0,0.0,-999,0.00,,---,0.64,VWS V14.01,2013-05-28 09:34:00,
2013-05-28 05:38:00,52.9,-99.9,-100.00,ENE,60,0.0,0.0,-999,0.00,,---,0.65,VWS V14.01,2013-05-28 09:38:00,
2013-05-28 05:39:00,52.9,-99.9,-100.00,ENE,60,0.0,0.0,-999,0.00,,---,0.65,VWS V14.01,2013-05-28 09:39:00,
2013-05-28 05:40:00,52.9,-99.9,-100.00,ENE,60,0.0,0.0,-999,0.00,,---,0.65,VWS V14.01,2013-05-28 09:40:00,
2013-05-28 05:43:00,52.9,-99.9,-100.00,ENE,60,0.0,0.0,-999,0.00,,---,0.65,VWS V14.01,2013-05-28 09:43:00,
2013-05-28 05:44:00,52.9,-99.9,-100.00,ENE,60,0.0,0.0,-999,0.00,,---,0.65,VWS V14.01,2013-05-28 09:44:00,
2013-05-28 05:45:00,53.1,-99.9,-100.00,South,176,6.1,6.1,-999,0.00,,---,0.65,VWS V14.01,2013-05-28 09:45:00,
2013-05-28 05:48:00,53.1,-99.9,-100.00,South,187,5.3,5.3,-999,0.00,,---,0.65,VWS V14.01,2013-05-28 09:48:00,
2013-05-28 05:49:00,53.4,-99.9,-100.00,SSE,165,3.1,5.3,-999,0.00,,---,0.65,VWS V14.01,2013-05-28 09:49:00,
2013-05-28 05:50:00,53.1,-99.9,-100.00,SSW,210,8.1,9.6,-999,0.00,,---,0.65,VWS V14.01,2013-05-28 09:50:00,
2013-05-28 05:53:00,53.1,-99.9,-100.00,NE,42,0.0,0.0,-999,0.00,,---,0.66,VWS V14.01,2013-05-28 09:53:00,
2013-05-28 05:54:00,53.4,-99.9,-100.00,NE,42,0.0,0.0,-999,0.00,,---,0.66,VWS V14.01,2013-05-28 09:54:00,
2013-05-28 05:55:00,53.4,-99.9,-100.00,SSE,149,6.5,6.5,-999,0.00,,---,0.67,VWS V14.01,2013-05-28 09:55:00,
2013-05-28 05:58:00,53.6,-99.9,-100.00,SSW,208,0.0,2.8,-999,0.00,,---,0.67,VWS V14.01,2013-05-28 09:58:00,
2013-05-28 05:59:00,53.6,-99.9,-100.00,SW,217,6.6,6.6,-999,0.00,,---,0.67,VWS V14.01,2013-05-28 09:59:00,
2013-05-28 06:01:00,53.4,-99.9,-100.00,SE,135,0.0,5.4,-999,0.00,,---,0.68,VWS V14.01,2013-05-28 10:01:00,
2013-05-28 06:03:00,53.6,-99.9,-100.00,South,190,2.8,3.4,-999,0.00,,---,0.68,VWS V14.01,2013-05-28 10:03:00,
2013-05-28 06:04:00,53.6,-99.9,-100.00,South,190,0.0,3.4,-999,0.00,,---,0.68,VWS V14.01,2013-05-28 10:04:00,
2013-05-28 06:06:00,53.4,-99.9,-100.00,SE,134,0.0,3.1,-999,0.00,,---,0.68,VWS V14.01,2013-05-28 10:06:00,
2013-05-28 06:08:00,53.6,-99.9,-100.00,SE,134,0.0,0.0,-999,0.00,,---,0.68,VWS V14.01,2013-05-28 10:08:00,
2013-05-28 06:09:00,53.6,-99.9,-100.00,SE,134,0.0,0.0,-999,0.00,,---,0.68,VWS V14.01,2013-05-28 10:09:00,
2013-05-28 06:10:00,53.6,-99.9,-100.00,SSE,156,0.0,3.0,-999,0.00,,---,0.69,VWS V14.01,2013-05-28 10:10:00,
2013-05-28 06:11:00,53.6,-99.9,-100.00,ESE,107,3.5,3.5,-999,0.00,,---,0.69,VWS V14.01,2013-05-28 10:11:00,
2013-05-28 06:14:00,53.6,-99.9,-100.00,ESE,107,0.0,0.0,-999,0.00,,---,0.69,VWS V14.01,2013-05-28 10:14:00,
2013-05-28 06:15:00,53.6,-99.9,-100.00,ESE,107,0.0,0.0,-999,0.00,,---,0.69,VWS V14.01,2013-05-28 10:15:00,
2013-05-28 06:17:00,53.6,-99.9,-100.00,SE,125,0.0,3.2,-999,0.00,,---,0.69,VWS V14.01,2013-05-28 10:17:00,
2013-05-28 06:19:00,53.6,-99.9,-100.00,SE,125,0.0,0.0,-999,0.00,,---,0.69,VWS V14.01,2013-05-28 10:19:00,
2013-05-28 06:20:00,53.6,-99.9,-100.00,SE,125,0.0,0.0,-999,0.00,,---,0.70,VWS V14.01,2013-05-28 10:20:00,
2013-05-28 06:22:00,53.9,-99.9,-100.00,SE,125,0.0,0.0,-999,0.00,,---,0.70,VWS V14.01,2013-05-28 10:22:00,
2013-05-28 06:24:00,53.9,-99.9,-100.00,SE,125,0.0,0.0,-999,0.00,,---,0.70,VWS V14.01,2013-05-28 10:24:00,
2013-05-28 06:26:00,53.6,-99.9,-100.00,SE,125,0.0,0.0,-999,0.00,,---,0.70,VWS V14.01,2013-05-28 10:26:00,
2013-05-28 06:27:00,53.6,-99.9,-100.00,SE,125,0.0,0.0,-999,0.00,,---,0.71,VWS V14.01,2013-05-28 10:27:00,
2013-05-28 06:29:00,53.9,-99.9,-100.00,SE,125,0.0,0.0,-999,0.00,,---,0.71,VWS V14.01,2013-05-28 10:29:00,
2013-05-28 06:31:00,53.9,-99.9,-100.00,East,87,0.0,0.0,-999,0.00,,---,0.71,VWS V14.01,2013-05-28 10:31:00,
2013-05-28 06:32:00,54.1,-99.9,-100.00,East,87,0.0,0.0,-999,0.00,,---,0.71,VWS V14.01,2013-05-28 10:32:00,
2013-05-28 06:34:00,53.9,-99.9,-100.00,East,87,0.0,0.0,-999,0.00,,---,0.71,VWS V14.01,2013-05-28 10:34:00,
2013-05-28 06:35:00,53.9,-99.9,-100.00,East,87,0.0,0.0,-999,0.00,,---,0.71,VWS V14.01,2013-05-28 10:35:00,
2013-05-28 06:36:00,54.4,-99.9,-100.00,East,87,0.0,0.0,-999,0.00,,---,0.71,VWS V14.01,2013-05-28 10:36:00,
2013-05-28 06:37:00,54.1,-99.9,-100.00,East,87,0.0,0.0,-999,0.00,,---,0.71,VWS V14.01,2013-05-28 10:37:00,
2013-05-28 06:39:00,54.4,-99.9,-100.00,SSE,159,5.0,8.2,-999,0.00,,---,0.71,VWS V14.01,2013-05-28 10:39:00,
2013-05-28 06:40:00,54.4,-99.9,-100.00,SSE,156,7.2,8.5,-999,0.00,,---,0.71,VWS V14.01,2013-05-28 10:40:00,
2013-05-28 06:41:00,54.4,-99.9,-100.00,SSE,148,0.0,8.5,-999,0.00,,---,0.71,VWS V14.01,2013-05-28 10:41:00,
2013-05-28 06:42:00,54.4,-99.9,-100.00,SSE,148,0.0,0.0,-999,0.00,,---,0.71,VWS V14.01,2013-05-28 10:42:00,
2013-05-28 06:44:00,54.4,-99.9,-100.00,SSE,159,0.0,8.9,-999,0.00,,---,0.71,VWS V14.01,2013-05-28 10:44:00,
2013-05-28 06:45:00,54.7,-99.9,-100.00,SSW,195,0.0,2.4,-999,0.00,,---,0.71,VWS V14.01,2013-05-28 10:45:00,
2013-05-28 06:46:00,54.4,-99.9,-100.00,East,87,0.0,3.3,-999,0.00,,---,0.71,VWS V14.01,2013-05-28 10:46:00,
2013-05-28 06:47:00,54.4,-99.9,-100.00,East,87,0.0,0.0,-999,0.00,,---,0.71,VWS V14.01,2013-05-28 10:47:00,
2013-05-28 06:50:00,54.4,-99.9,-100.00,East,87,0.0,0.0,-999,0.00,,---,0.71,VWS V14.01,2013-05-28 10:50:00,
2013-05-28 06:51:00,54.9,-99.9,-100.00,East,87,0.0,0.0,-999,0.00,,---,0.71,VWS V14.01,2013-05-28 10:51:00,
2013-05-28 06:53:00,54.7,-99.9,-100.00,SE,143,0.0,3.4,-999,0.00,,---,0.71,VWS V14.01,2013-05-28 10:53:00,
2013-05-28 06:55:00,55.2,-99.9,-100.00,SE,143,0.0,0.0,-999,0.00,,---,0.71,VWS V14.01,2013-05-28 10:55:00,
2013-05-28 06:56:00,55.2,-99.9,-100.00,SE,143,0.0,0.0,-999,0.00,,---,0.71,VWS V14.01,2013-05-28 10:56:00,
2013-05-28 06:57:00,54.9,-99.9,-100.00,SE,143,0.0,0.0,-999,0.00,,---,0.71,VWS V14.01,2013-05-28 10:57:00,
2013-05-28 06:58:00,54.9,-99.9,-100.00,SE,143,0.0,0.0,-999,0.00,,---,0.71,VWS V14.01,2013-05-28 10:58:00,
2013-05-28 07:00:00,54.9,-99.9,-100.00,SSW,202,0.0,4.2,-999,0.00,,---,0.71,VWS V14.01,2013-05-28 11:00:00,
2013-05-28 07:01:00,55.2,-99.9,-100.00,SSW,202,0.0,0.0,-999,0.00,,---,0.71,VWS V14.01,2013-05-28 11:01:00,
2013-05-28 07:02:00,55.2,-99.9,-100.00,SSW,202,0.0,0.0,-999,0.00,,---,0.71,VWS V14.01,2013-05-28 11:02:00,
2013-05-28 07:03:00,55.2,-99.9,-100.00,SSW,202,0.0,0.0,-999,0.00,,---,0.71,VWS V14.01,2013-05-28 11:03:00,
2013-05-28 07:05:00,54.7,-99.9,-100.00,ESE,110,4.2,8.1,-999,0.00,,---,0.71,VWS V14.01,2013-05-28 11:05:00,
2013-05-28 07:07:00,55.2,-99.9,-100.00,SSE,158,0.0,0.0,-999,0.00,,---,0.71,VWS V14.01,2013-05-28 11:07:00,
2013-05-28 07:08:00,55.2,-99.9,-100.00,SW,214,3.1,3.1,-999,0.00,,---,0.71,VWS V14.01,2013-05-28 11:08:00,
2013-05-28 07:10:00,55.2,-99.9,-100.00,SW,215,0.0,0.0,-999,0.00,,---,0.71,VWS V14.01,2013-05-28 11:10:00,
2013-05-28 07:12:00,55.7,-99.9,-100.00,SW,215,0.0,0.0,-999,0.00,,---,0.71,VWS V14.01,2013-05-28 11:12:00,
2013-05-28 07:13:00,55.2,-99.9,-100.00,SW,215,0.0,0.0,-999,0.00,,---,0.71,VWS V14.01,2013-05-28 11:13:00,
2013-05-28 07:15:00,55.5,-99.9,-100.00,SW,215,0.0,0.0,-999,0.00,,---,0.71,VWS V14.01,2013-05-28 11:15:00,
2013-05-28 07:17:00,55.2,-99.9,-100.00,SW,215,0.0,0.0,-999,0.00,,---,0.71,VWS V14.01,2013-05-28 11:17:00,
2013-05-28 07:18:00,55.5,-99.9,-100.00,SW,215,0.0,0.0,-999,0.00,,---,0.71,VWS V14.01,2013-05-28 11:18:00,
2013-05-28 07:20:00,55.2,-99.9,-100.00,SW,215,0.0,0.0,-999,0.00,,---,0.71,VWS V14.01,2013-05-28 11:20:00,
2013-05-28 07:22:00,55.7,-99.9,-100.00,SW,215,0.0,0.0,-999,0.00,,---,0.71,VWS V14.01,2013-05-28 11:22:00,
2013-05-28 07:23:00,55.7,-99.9,-100.00,SW,215,0.0,0.0,-999,0.00,,---,0.71,VWS V14.01,2013-05-28 11:23:00,
2013-05-28 07:26:00,55.5,-99.9,-100.00,SW,215,0.0,0.0,-999,0.00,,---,0.71,VWS V14.01,2013-05-28 11:26:00,
2013-05-28 07:27:00,55.7,-99.9,-100.00,SW,215,0.0,0.0,-999,0.00,,---,0.71,VWS V14.01,2013-05-28 11:27:00,
2013-05-28 07:29:00,56.0,-99.9,-100.00,South,173,0.0,4.9,-999,0.00,,---,0.71,VWS V14.01,2013-05-28 11:29:00,
2013-05-28 07:31:00,56.0,-99.9,-100.00,South,173,0.0,0.0,-999,0.00,,---,0.71,VWS V14.01,2013-05-28 11:31:00,
2013-05-28 07:32:00,56.3,-99.9,-100.00,South,173,0.0,0.0,-999,0.00,,---,0.71,VWS V14.01,2013-05-28 11:32:00,
2013-05-28 07:33:00,56.0,-99.9,-100.00,South,173,0.0,0.0,-999,0.00,,---,0.71,VWS V14.01,2013-05-28 11:33:00,
2013-05-28 07:34:00,56.8,-99.9,-100.00,South,173,0.0,0.0,-999,0.00,,---,0.71,VWS V14.01,2013-05-28 11:34:00,
2013-05-28 07:36:00,56.8,-99.9,-100.00,SE,146,3.4,3.4,-999,0.00,,---,0.71,VWS V14.01,2013-05-28 11:36:00,
2013-05-28 07:37:00,56.8,-99.9,-100.00,South,177,4.3,5.5,-999,0.00,,---,0.71,VWS V14.01,2013-05-28 11:37:00,
2013-05-28 07:38:00,57.1,-99.9,-100.00,South,177,0.0,4.3,-999,0.00,,---,0.71,VWS V14.01,2013-05-28 11:38:00,
2013-05-28 07:39:00,57.3,-99.9,-100.00,SSW,198,3.5,3.5,-999,0.00,,---,0.71,VWS V14.01,2013-05-28 11:39:00,
2013-05-28 07:41:00,57.6,-99.9,-100.00,SSE,166,0.0,0.0,-999,0.00,,---,0.71,VWS V14.01,2013-05-28 11:41:00,
2013-05-28 07:42:00,57.6,-99.9,-100.00,SSE,166,0.0,0.0,-999,0.00,,---,0.71,VWS V14.01,2013-05-28 11:42:00,
2013-05-28 07:43:00,57.9,-99.9,-100.00,SSE,166,0.0,0.0,-999,0.00,,---,0.71,VWS V14.01,2013-05-28 11:43:00,
2013-05-28 07:44:00,57.6,-99.9,-100.00,SSE,163,0.0,7.4,-999,0.00,,---,0.71,VWS V14.01,2013-05-28 11:44:00,
2013-05-28 07:46:00,57.6,-99.9,-100.00,SE,125,3.4,4.7,-999,0.00,,---,0.71,VWS V14.01,2013-05-28 11:46:00,
2013-05-28 07:47:00,57.6,-99.9,-100.00,SE,125,0.0,0.0,-999,0.00,,---,0.71,VWS V14.01,2013-05-28 11:47:00,
2013-05-28 07:48:00,58.2,-99.9,-100.00,SE,125,0.0,0.0,-999,0.00,,---,0.71,VWS V14.01,2013-05-28 11:48:00,
2013-05-28 07:49:00,57.9,-99.9,-100.00,SE,125,0.0,0.0,-999,0.00,,---,0.71,VWS V14.01,2013-05-28 11:49:00,
2013-05-28 07:51:00,57.6,-99.9,-100.00,SE,143,0.0,0.0,-999,0.00,,---,0.71,VWS V14.01,2013-05-28 11:51:00,
2013-05-28 07:52:00,57.9,-99.9,-100.00,SE,143,0.0,0.0,-999,0.00,,---,0.71,VWS V14.01,2013-05-28 11:52:00,
2013-05-28 07:53:00,57.3,-99.9,-100.00,South,188,4.3,5.2,-999,0.00,,---,0.71,VWS V14.01,2013-05-28 11:53:00,
2013-05-28 07:54:00,57.9,-99.9,-100.00,WSW,238,4.6,8.8,-999,0.00,,---,0.71,VWS V14.01,2013-05-28 11:54:00,
2013-05-28 07:57:00,57.6,-99.9,-100.00,SW,225,0.0,0.0,-999,0.00,,---,0.71,VWS V14.01,2013-05-28 11:57:00,
2013-05-28 07:58:00,57.6,-99.9,-100.00,SW,225,0.0,0.0,-999,0.00,,---,0.71,VWS V14.01,2013-05-28 11:58:00,
2013-05-28 07:59:00,57.6,-99.9,-100.00,SW,225,0.0,0.0,-999,0.00,,---,0.71,VWS V14.01,2013-05-28 11:59:00,
2013-05-28 08:02:00,57.6,-99.9,-100.00,SW,229,0.0,3.4,-999,0.00,,---,0.71,VWS V14.01,2013-05-28 12:02:00,
2013-05-28 08:03:00,57.6,-99.9,-100.00,SW,236,0.0,3.5,-999,0.00,,---,0.71,VWS V14.01,2013-05-28 12:03:00,
2013-05-28 08:04:00,57.6,-99.9,-100.00,WSW,245,0.0,0.0,-999,0.00,,---,0.71,VWS V14.01,2013-05-28 12:04:00,
2013-05-28 08:07:00,58.4,-99.9,-100.00,WSW,242,0.0,0.0,-999,0.00,,---,0.71,VWS V14.01,2013-05-28 12:07:00,
2013-05-28 08:08:00,58.4,-99.9,-100.00,WSW,249,5.5,5.5,-999,0.00,,---,0.71,VWS V14.01,2013-05-28 12:08:00,
2013-05-28 08:09:00,58.2,-99.9,-100.00,South,173,3.0,3.0,-999,0.00,,---,0.71,VWS V14.01,2013-05-28 12:09:00,
2013-05-28 08:12:00,58.4,-99.9,-100.00,West,277,0.0,0.0,-999,0.00,,---,0.71,VWS V14.01,2013-05-28 12:12:00,
2013-05-28 08:13:00,59.0,-99.9,-100.00,West,277,0.0,0.0,-999,0.00,,---,0.71,VWS V14.01,2013-05-28 12:13:00,
2013-05-28 08:15:00,58.7,-99.9,-100.00,SW,218,5.3,7.0,-999,0.00,,---,0.71,VWS V14.01,2013-05-28 12:15:00,
2013-05-28 08:17:00,59.2,-99.9,-100.00,West,259,0.0,3.1,-999,0.00,,---,0.71,VWS V14.01,2013-05-28 12:17:00,
2013-05-28 08:18:00,59.2,-99.9,-100.00,SW,222,4.5,4.5,-999,0.00,,---,0.71,VWS V14.01,2013-05-28 12:18:00,
2013-05-28 08:20:00,59.2,-99.9,-100.00,SSW,205,0.0,4.3,-999,0.00,,---,0.71,VWS V14.01,2013-05-28 12:20:00,
2013-05-28 08:23:00,60.0,-99.9,-100.00,SW,218,0.0,0.0,-999,0.00,,---,0.71,VWS V14.01,2013-05-28 12:23:00,
2013-05-28 08:25:00,60.3,-99.9,-100.00,SW,218,0.0,0.0,-999,0.00,,---,0.71,VWS V14.01,2013-05-28 12:25:00,
2013-05-28 08:28:00,60.8,-99.9,-100.00,SSW,197,0.0,0.0,-999,0.00,,---,0.71,VWS V14.01,2013-05-28 12:28:00,
2013-05-28 08:29:00,61.6,-99.9,-100.00,SSW,197,0.0,0.0,-999,0.00,,---,0.71,VWS V14.01,2013-05-28 12:29:00,
2013-05-28 08:30:00,61.6,-99.9,-100.00,WSW,246,4.8,5.1,-999,0.00,,---,0.71,VWS V14.01,2013-05-28 12:30:00,
2013-05-28 08:33:00,61.9,-99.9,-100.00,SSW,207,0.0,0.0,-999,0.00,,---,0.71,VWS V14.01,2013-05-28 12:33:00,
2013-05-28 08:34:00,62.2,-99.9,-100.00,SSW,207,0.0,2.5,-999,0.00,,---,0.71,VWS V14.01,2013-05-28 12:34:00,
2013-05-28 08:35:00,61.9,-99.9,-100.00,SSW,207,0.0,0.0,-999,0.00,,---,0.71,VWS V14.01,2013-05-28 12:35:00,
2013-05-28 08:38:00,60.8,-99.9,-100.00,South,179,0.0,5.2,-999,0.00,,---,0.71,VWS V14.01,2013-05-28 12:38:00,
2013-05-28 08:39:00,61.6,-99.9,-100.00,WSW,242,3.5,4.3,-999,0.00,,---,0.71,VWS V14.01,2013-05-28 12:39:00,
2013-05-28 08:40:00,60.8,-99.9,-100.00,SSE,155,0.0,0.0,-999,0.00,,---,0.71,VWS V14.01,2013-05-28 12:40:00,
2013-05-28 08:43:00,60.8,-99.9,-100.00,SSW,204,0.0,4.2,-999,0.00,,---,0.71,VWS V14.01,2013-05-28 12:43:00,
2013-05-28 08:44:00,61.1,-99.9,-100.00,SSW,204,0.0,0.0,-999,0.00,,---,0.71,VWS V14.01,2013-05-28 12:44:00,
2013-05-28 08:45:00,60.8,-99.9,-100.00,South,180,6.4,6.4,-999,0.00,,---,0.71,VWS V14.01,2013-05-28 12:45:00,
2013-05-28 08:48:00,60.8,-99.9,-100.00,SSE,149,0.0,4.2,-999,0.00,,---,0.71,VWS V14.01,2013-05-28 12:48:00,
2013-05-28 08:49:00,60.8,-99.9,-100.00,SE,146,0.0,0.0,-999,0.00,,---,0.71,VWS V14.01,2013-05-28 12:49:00,
2013-05-28 08:50:00,60.8,-99.9,-100.00,SE,146,0.0,0.0,-999,0.00,,---,0.71,VWS V14.01,2013-05-28 12:50:00,
2013-05-28 08:51:00,60.8,-99.9,-100.00,South,179,3.5,5.1,-999,0.00,,---,0.71,VWS V14.01,2013-05-28 12:51:00,
2013-05-28 08:53:00,61.6,-99.9,-100.00,SW,217,2.5,2.5,-999,0.00,,---,0.71,VWS V14.01,2013-05-28 12:53:00,
2013-05-28 08:54:00,61.4,-99.9,-100.00,South,187,2.7,5.1,-999,0.00,,---,0.71,VWS V14.01,2013-05-28 12:54:00,
2013-05-28 08:55:00,61.4,-99.9,-100.00,South,187,2.7,5.1,-999,0.00,,---,0.71,VWS V14.01,2013-05-28 12:55:00,
2013-05-28 08:56:00,61.6,-99.9,-100.00,SSW,210,0.0,0.0,-999,0.00,,---,0.71,VWS V14.01,2013-05-28 12:56:00,
2013-05-28 08:58:00,61.6,-99.9,-100.00,SSW,195,0.0,0.0,-999,0.00,,---,0.71,VWS V14.01,2013-05-28 12:58:00,
2013-05-28 09:00:00,61.6,-99.9,-100.00,SSW,195,0.0,0.0,-999,0.00,,---,0.71,VWS V14.01,2013-05-28 13:00:00,
2013-05-28 09:01:00,61.1,-99.9,-100.00,SSW,212,0.0,3.0,-999,0.00,,---,0.71,VWS V14.01,2013-05-28 13:01:00,
2013-05-28 09:03:00,61.4,-99.9,-100.00,South,180,0.0,0.0,-999,0.00,,---,0.71,VWS V14.01,2013-05-28 13:03:00,
2013-05-28 09:05:00,60.8,-99.9,-100.00,South,190,6.8,8.1,-999,0.00,,---,0.71,VWS V14.01,2013-05-28 13:05:00,
2013-05-28 09:06:00,60.8,-99.9,-100.00,SW,214,2.9,3.4,-999,0.00,,---,0.71,VWS V14.01,2013-05-28 13:06:00,
2013-05-28 09:08:00,60.8,-99.9,-100.00,SE,146,0.0,0.0,-999,0.00,,---,0.71,VWS V14.01,2013-05-28 13:08:00,
2013-05-28 09:09:00,60.8,-99.9,-100.00,SE,146,0.0,0.0,-999,0.00,,---,0.71,VWS V14.01,2013-05-28 13:09:00,
2013-05-28 09:10:00,61.1,-99.9,-100.00,South,173,5.4,5.4,-999,0.00,,---,0.71,VWS V14.01,2013-05-28 13:10:00,
2013-05-28 09:11:00,61.4,-99.9,-100.00,SE,124,0.0,5.6,-999,0.00,,---,0.71,VWS V14.01,2013-05-28 13:11:00,
2013-05-28 09:12:00,61.6,-99.9,-100.00,SE,124,0.0,0.0,-999,0.00,,---,0.71,VWS V14.01,2013-05-28 13:12:00,
2013-05-28 09:13:00,61.9,-99.9,-100.00,SW,229,4.6,6.3,-999,0.00,,---,0.71,VWS V14.01,2013-05-28 13:13:00,
2013-05-28 09:14:00,62.5,-99.9,-100.00,SSW,195,3.4,6.3,-999,0.00,,---,0.71,VWS V14.01,2013-05-28 13:14:00,
2013-05-28 09:15:00,62.5,-99.9,-100.00,SW,222,4.7,7.1,-999,0.00,,---,0.71,VWS V14.01,2013-05-28 13:15:00,
2013-05-28 09:16:00,62.5,-99.9,-100.00,WSW,238,5.9,5.9,-999,0.00,,---,0.71,VWS V14.01,2013-05-28 13:16:00,
2013-05-28 09:17:00,62.8,-99.9,-100.00,SSW,198,7.5,7.5,-999,0.00,,---,0.71,VWS V14.01,2013-05-28 13:17:00,
2013-05-28 09:19:00,62.5,-99.9,-100.00,WSW,239,0.0,3.0,-999,0.00,,---,0.71,VWS V14.01,2013-05-28 13:19:00,
2013-05-28 09:20:00,62.2,-99.9,-100.00,South,191,3.4,3.4,-999,0.00,,---,0.71,VWS V14.01,2013-05-28 13:20:00,
2013-05-28 09:21:00,62.5,-99.9,-100.00,SSW,202,0.0,3.4,-999,0.00,,---,0.71,VWS V14.01,2013-05-28 13:21:00,
2013-05-28 09:22:00,62.5,-99.9,-100.00,SW,218,4.8,6.3,-999,0.00,,---,0.71,VWS V14.01,2013-05-28 13:22:00,
2013-05-28 09:24:00,62.5,-99.9,-100.00,SW,236,0.0,3.4,-999,0.00,,---,0.71,VWS V14.01,2013-05-28 13:24:00,
2013-05-28 09:25:00,62.5,-99.9,-100.00,SSW,194,7.0,7.0,-999,0.00,,---,0.71,VWS V14.01,2013-05-28 13:25:00,
2013-05-28 09:26:00,62.2,-99.9,-100.00,SSW,198,4.3,7.0,-999,0.00,,---,0.71,VWS V14.01,2013-05-28 13:26:00,
2013-05-28 09:27:00,61.9,-99.9,-100.00,SSW,201,0.0,4.3,-999,0.00,,---,0.71,VWS V14.01,2013-05-28 13:27:00,
2013-05-28 09:29:00,61.6,-99.9,-100.00,SW,221,3.5,4.7,-999,0.00,,---,0.71,VWS V14.01,2013-05-28 13:29:00,
2013-05-28 09:30:00,61.6,-99.9,-100.00,SSW,201,3.1,4.5,-999,0.00,,---,0.71,VWS V14.01,2013-05-28 13:30:00,
2013-05-28 09:31:00,61.6,-99.9,-100.00,SW,215,7.0,7.0,-999,0.00,,---,0.71,VWS V14.01,2013-05-28 13:31:00,
2013-05-28 09:32:00,61.1,-99.9,-100.00,SW,222,3.0,3.0,-999,0.00,,---,0.71,VWS V14.01,2013-05-28 13:32:00,
2013-05-28 09:34:00,61.1,-99.9,-100.00,WSW,239,3.3,4.7,-999,0.00,,---,0.71,VWS V14.01,2013-05-28 13:34:00,
2013-05-28 09:36:00,60.8,-99.9,-100.00,WSW,240,7.1,8.8,-999,0.00,,---,0.71,VWS V14.01,2013-05-28 13:36:00,
2013-05-28 09:38:00,61.4,-99.9,-100.00,WSW,246,4.8,5.4,-999,0.00,,---,0.71,VWS V14.01,2013-05-28 13:38:00,
2013-05-28 09:39:00,60.8,-99.9,-100.00,South,172,0.0,5.2,-999,0.00,,---,0.71,VWS V14.01,2013-05-28 13:39:00,
2013-05-28 09:41:00,60.8,-99.9,-100.00,SSW,204,0.0,4.6,-999,0.00,,---,0.71,VWS V14.01,2013-05-28 13:41:00,
2013-05-28 09:43:00,61.4,-99.9,-100.00,SSW,204,0.0,0.0,-999,0.00,,---,0.71,VWS V14.01,2013-05-28 13:43:00,
2013-05-28 09:44:00,61.6,-99.9,-100.00,SSW,204,0.0,0.0,-999,0.00,,---,0.71,VWS V14.01,2013-05-28 13:44:00,
2013-05-28 09:45:00,61.6,-99.9,-100.00,SSW,204,0.0,0.0,-999,0.00,,---,0.71,VWS V14.01,2013-05-28 13:45:00,
2013-05-28 09:46:00,62.5,-99.9,-100.00,SSW,204,0.0,0.0,-999,0.00,,---,0.71,VWS V14.01,2013-05-28 13:46:00,
2013-05-28 09:48:00,62.5,-99.9,-100.00,SSW,210,4.3,4.3,-999,0.00,,---,0.71,VWS V14.01,2013-05-28 13:48:00,
2013-05-28 09:49:00,62.8,-99.9,-100.00,SW,217,0.0,3.4,-999,0.00,,---,0.71,VWS V14.01,2013-05-28 13:49:00,
2013-05-28 09:50:00,63.0,-99.9,-100.00,SSW,194,3.5,5.3,-999,0.00,,---,0.71,VWS V14.01,2013-05-28 13:50:00,
2013-05-28 09:51:00,63.0,-99.9,-100.00,SSW,194,0.0,3.5,-999,0.00,,---,0.71,VWS V14.01,2013-05-28 13:51:00,
2013-05-28 09:53:00,63.0,-99.9,-100.00,SSW,205,0.0,4.2,-999,0.00,,---,0.71,VWS V14.01,2013-05-28 13:53:00,
2013-05-28 09:54:00,63.3,-99.9,-100.00,SW,222,7.8,7.8,-999,0.00,,---,0.71,VWS V14.01,2013-05-28 13:54:00,
2013-05-28 09:55:00,63.3,-99.9,-100.00,SW,231,4.5,4.9,-999,0.00,,---,0.71,VWS V14.01,2013-05-28 13:55:00,
2013-05-28 09:56:00,63.3,-99.9,-100.00,SW,214,0.0,4.9,-999,0.00,,---,0.71,VWS V14.01,2013-05-28 13:56:00,
2013-05-28 09:58:00,63.9,-99.9,-100.00,WSW,245,3.3,6.2,-999,0.00,,---,0.71,VWS V14.01,2013-05-28 13:58:00,
2013-05-28 09:59:00,64.2,-99.9,-100.00,WSW,248,4.1,6.2,-999,0.00,,---,0.71,VWS V14.01,2013-05-28 13:59:00,
2013-05-28 10:00:00,64.2,-99.9,-100.00,SW,217,5.9,5.9,-999,0.00,,---,0.71,VWS V14.01,2013-05-28 14:00:00,
2013-05-28 10:01:00,63.9,-99.9,-100.00,SW,226,3.5,6.6,-999,0.00,,---,0.71,VWS V14.01,2013-05-28 14:01:00,
2013-05-28 10:02:00,64.2,-99.9,-100.00,WSW,246,8.9,8.9,-999,0.00,,---,0.71,VWS V14.01,2013-05-28 14:02:00,
2013-05-28 10:03:00,64.7,-99.9,-100.00,SW,228,6.1,6.5,-999,0.00,,---,0.71,VWS V14.01,2013-05-28 14:03:00,
2013-05-28 10:04:00,65.0,-99.9,-100.00,SW,228,3.3,7.7,-999,0.00,,---,0.71,VWS V14.01,2013-05-28 14:04:00,
2013-05-28 10:05:00,65.6,-99.9,-100.00,WSW,243,5.5,6.1,-999,0.00,,---,0.71,VWS V14.01,2013-05-28 14:05:00,
2013-05-28 10:06:00,65.9,-99.9,-100.00,SSW,204,6.4,8.8,-999,0.00,,---,0.71,VWS V14.01,2013-05-28 14:06:00,
2013-05-28 10:07:00,65.6,-99.9,-100.00,SW,221,6.8,8.8,-999,0.00,,---,0.71,VWS V14.01,2013-05-28 14:07:00,
2013-05-28 10:08:00,66.4,-99.9,-100.00,West,263,4.7,4.7,-999,0.00,,---,0.71,VWS V14.01,2013-05-28 14:08:00,
2013-05-28 10:09:00,67.3,-99.9,-100.00,WSW,246,5.3,6.0,-999,0.00,,---,0.71,VWS V14.01,2013-05-28 14:09:00,
2013-05-28 10:10:00,66.8,-99.9,-100.00,SW,218,7.0,7.0,-999,0.00,,---,0.71,VWS V14.01,2013-05-28 14:10:00,
2013-05-28 10:11:00,66.1,-99.9,-100.00,SSW,207,4.5,5.0,-999,0.00,,---,0.71,VWS V14.01,2013-05-28 14:11:00,
2013-05-28 10:12:00,66.4,-99.9,-100.00,SW,235,4.3,5.0,-999,0.00,,---,0.71,VWS V14.01,2013-05-28 14:12:00,
2013-05-28 10:13:00,65.6,-99.9,-100.00,WSW,240,6.6,9.9,-999,0.00,,---,0.71,VWS V14.01,2013-05-28 14:13:00,
2013-05-28 10:15:00,65.9,-99.9,-100.00,SW,232,2.8,6.5,-999,0.00,,---,0.71,VWS V14.01,2013-05-28 14:15:00,
2013-05-28 10:16:00,65.3,-99.9,-100.00,SSE,160,0.0,0.0,-999,0.00,,---,0.71,VWS V14.01,2013-05-28 14:16:00,
2013-05-28 10:17:00,65.6,-99.9,-100.00,SW,231,5.3,5.3,-999,0.00,,---,0.71,VWS V14.01,2013-05-28 14:17:00,
2013-05-28 10:19:00,65.3,-99.9,-100.00,SW,219,0.0,4.4,-999,0.00,,---,0.71,VWS V14.01,2013-05-28 14:19:00,
2013-05-28 10:20:00,64.7,-99.9,-100.00,SSW,211,7.5,8.1,-999,0.00,,---,0.71,VWS V14.01,2013-05-28 14:20:00,
2013-05-28 10:21:00,64.7,-99.9,-100.00,South,191,4.6,6.2,-999,0.00,,---,0.71,VWS V14.01,2013-05-28 14:21:00,
2013-05-28 10:22:00,65.3,-99.9,-100.00,SSE,162,3.4,6.3,-999,0.00,,---,0.71,VWS V14.01,2013-05-28 14:22:00,
2013-05-28 10:24:00,65.0,-99.9,-100.00,SW,228,5.3,6.5,-999,0.00,,---,0.71,VWS V14.01,2013-05-28 14:24:00,
2013-05-28 10:25:00,65.3,-99.9,-100.00,SSW,210,4.7,5.9,-999,0.00,,---,0.71,VWS V14.01,2013-05-28 14:25:00,
2013-05-28 10:26:00,65.3,-99.9,-100.00,SW,222,2.2,5.4,-999,0.00,,---,0.71,VWS V14.01,2013-05-28 14:26:00,
2013-05-28 10:27:00,64.7,-99.9,-100.00,WSW,252,3.2,6.1,-999,0.00,,---,0.71,VWS V14.01,2013-05-28 14:27:00,
2013-05-28 10:28:00,64.7,-99.9,-100.00,SW,214,3.4,3.4,-999,0.00,,---,0.71,VWS V14.01,2013-05-28 14:28:00,
2013-05-28 10:29:00,65.3,-99.9,-100.00,SSE,152,1.7,4.3,-999,0.00,,---,0.71,VWS V14.01,2013-05-28 14:29:00,
2013-05-28 10:30:00,64.7,-99.9,-100.00,WSW,245,5.2,5.3,-999,0.00,,---,0.71,VWS V14.01,2013-05-28 14:30:00,
2013-05-28 10:31:00,64.7,-99.9,-100.00,SSW,205,3.3,5.0,-999,0.00,,---,0.71,VWS V14.01,2013-05-28 14:31:00,
2013-05-28 10:32:00,65.6,-99.9,-100.00,SSW,195,4.5,4.8,-999,0.00,,---,0.71,VWS V14.01,2013-05-28 14:32:00,
2013-05-28 10:33:00,65.3,-99.9,-100.00,WSW,245,5.0,6.0,-999,0.00,,---,0.71,VWS V14.01,2013-05-28 14:33:00,
2013-05-28 10:34:00,65.3,-99.9,-100.00,SW,228,5.3,5.5,-999,0.00,,---,0.71,VWS V14.01,2013-05-28 14:34:00,
2013-05-28 10:35:00,65.6,-99.9,-100.00,WSW,238,6.4,6.6,-999,0.00,,---,0.71,VWS V14.01,2013-05-28 14:35:00,
2013-05-28 10:36:00,65.6,-99.9,-100.00,SW,225,4.5,4.5,-999,0.00,,---,0.71,VWS V14.01,2013-05-28 14:36:00,
2013-05-28 10:37:00,65.3,-99.9,-100.00,South,176,3.0,3.3,-999,0.00,,---,0.71,VWS V14.01,2013-05-28 14:37:00,
2013-05-28 10:38:00,65.6,-99.9,-100.00,SW,231,1.6,4.6,-999,0.00,,---,0.71,VWS V14.01,2013-05-28 14:38:00,
2013-05-28 10:39:00,65.9,-99.9,-100.00,SW,217,2.9,4.2,-999,0.00,,---,0.71,VWS V14.01,2013-05-28 14:39:00,
2013-05-28 10:40:00,66.1,-99.9,-100.00,WSW,253,5.1,5.7,-999,0.00,,---,0.71,VWS V14.01,2013-05-28 14:40:00,
2013-05-28 10:41:00,66.8,-99.9,-100.00,SW,229,3.4,4.8,-999,0.00,,---,0.71,VWS V14.01,2013-05-28 14:41:00,
2013-05-28 10:43:00,67.3,-99.9,-100.00,SSW,207,3.3,5.2,-999,0.00,,---,0.71,VWS V14.01,2013-05-28 14:43:00,
2013-05-28 10:44:00,68.2,-99.9,-100.00,WSW,240,0.0,4.6,-999,0.00,,---,0.71,VWS V14.01,2013-05-28 14:44:00,
2013-05-28 10:45:00,69.0,-99.9,-100.00,SSW,211,0.0,2.2,-999,0.00,,---,0.71,VWS V14.01,2013-05-28 14:45:00,
2013-05-28 10:46:00,68.4,-99.9,-100.00,SSW,210,5.2,6.0,-999,0.00,,---,0.71,VWS V14.01,2013-05-28 14:46:00,
2013-05-28 10:48:00,68.2,-99.9,-100.00,WSW,246,5.5,5.5,-999,0.00,,---,0.71,VWS V14.01,2013-05-28 14:48:00,
2013-05-28 10:49:00,68.7,-99.9,-100.00,SW,218,7.3,7.3,-999,0.00,,---,0.71,VWS V14.01,2013-05-28 14:49:00,
2013-05-28 10:51:00,68.7,-99.9,-100.00,WSW,257,4.2,4.9,-999,0.00,,---,0.71,VWS V14.01,2013-05-28 14:51:00,
2013-05-28 10:53:00,70.5,-99.9,-100.00,SW,224,6.2,6.8,-999,0.00,,---,0.71,VWS V14.01,2013-05-28 14:53:00,
2013-05-28 10:54:00,69.9,-99.9,-100.00,WSW,250,0.0,2.9,-999,0.00,,---,0.71,VWS V14.01,2013-05-28 14:54:00,
2013-05-28 10:56:00,70.5,-99.9,-100.00,WSW,250,0.0,0.0,-999,0.00,,---,0.71,VWS V14.01,2013-05-28 14:56:00,
2013-05-28 10:57:00,70.8,-99.9,-100.00,WSW,240,4.7,5.3,-999,0.00,,---,0.71,VWS V14.01,2013-05-28 14:57:00,
2013-05-28 10:58:00,70.8,-99.9,-100.00,WSW,243,6.1,6.1,-999,0.00,,---,0.71,VWS V14.01,2013-05-28 14:58:00,
2013-05-28 11:00:00,70.8,-99.9,-100.00,West,262,5.2,6.2,-999,0.00,,---,0.71,VWS V14.01,2013-05-28 15:00:00,
2013-05-28 11:01:00,71.4,-99.9,-100.00,West,262,5.5,5.7,-999,0.00,,---,0.71,VWS V14.01,2013-05-28 15:01:00,
2013-05-28 11:02:00,72.7,-99.9,-100.00,WSW,252,4.4,8.3,-999,0.00,,---,0.71,VWS V14.01,2013-05-28 15:02:00,
2013-05-28 11:03:00,71.7,-99.9,-100.00,SW,225,3.4,6.0,-999,0.00,,---,0.71,VWS V14.01,2013-05-28 15:03:00,
2013-05-28 11:04:00,72.3,-99.9,-100.00,SW,228,3.0,6.0,-999,0.00,,---,0.71,VWS V14.01,2013-05-28 15:04:00,
2013-05-28 11:05:00,72.7,-99.9,-100.00,SSW,205,3.2,5.2,-999,0.00,,---,0.71,VWS V14.01,2013-05-28 15:05:00,
2013-05-28 11:06:00,71.7,-99.9,-100.00,WSW,238,3.5,5.8,-999,0.00,,---,0.71,VWS V14.01,2013-05-28 15:06:00,
2013-05-28 11:07:00,72.7,-99.9,-100.00,South,191,4.7,5.7,-999,0.00,,---,0.71,VWS V14.01,2013-05-28 15:07:00,
2013-05-28 11:08:00,71.7,-99.9,-100.00,South,170,0.0,2.5,-999,0.00,,---,0.71,VWS V14.01,2013-05-28 15:08:00,
2013-05-28 11:09:00,71.7,-99.9,-100.00,WSW,240,3.0,3.0,-999,0.00,,---,0.71,VWS V14.01,2013-05-28 15:09:00,
2013-05-28 11:10:00,70.8,-99.9,-100.00,WSW,243,4.8,6.7,-999,0.00,,---,0.71,VWS V14.01,2013-05-28 15:10:00,
2013-05-28 11:11:00,70.8,-99.9,-100.00,SW,226,7.8,7.8,-999,0.00,,---,0.71,VWS V14.01,2013-05-28 15:11:00,
2013-05-28 11:12:00,70.8,-99.9,-100.00,SW,221,7.0,7.0,-999,0.00,,---,0.71,VWS V14.01,2013-05-28 15:12:00,
2013-05-28 11:13:00,70.5,-99.9,-100.00,South,191,4.6,5.7,-999,0.00,,---,0.71,VWS V14.01,2013-05-28 15:13:00,
2013-05-28 11:14:00,70.5,-99.9,-100.00,SW,225,3.4,5.7,-999,0.00,,---,0.71,VWS V14.01,2013-05-28 15:14:00,
2013-05-28 11:15:00,69.5,-99.9,-100.00,South,174,6.8,8.0,-999,0.00,,---,0.71,VWS V14.01,2013-05-28 15:15:00,
2013-05-28 11:16:00,69.0,-99.9,-100.00,South,183,5.5,7.0,-999,0.00,,---,0.71,VWS V14.01,2013-05-28 15:16:00,
2013-05-28 11:18:00,69.9,-99.9,-100.00,SW,214,5.8,5.8,-999,0.00,,---,0.71,VWS V14.01,2013-05-28 15:18:00,
2013-05-28 11:19:00,70.8,-99.9,-100.00,SSW,210,5.2,6.7,-999,0.00,,---,0.71,VWS V14.01,2013-05-28 15:19:00,
2013-05-28 11:20:00,72.3,-99.9,-100.00,SW,214,0.0,5.0,-999,0.00,,---,0.71,VWS V14.01,2013-05-28 15:20:00,
2013-05-28 11:22:00,72.0,-99.9,-100.00,SW,215,6.0,6.0,-999,0.00,,---,0.71,VWS V14.01,2013-05-28 15:22:00,
2013-05-28 11:23:00,71.7,-99.9,-100.00,SW,229,4.5,7.1,-999,0.00,,---,0.71,VWS V14.01,2013-05-28 15:23:00,
2013-05-28 11:24:00,71.7,-99.9,-100.00,SSW,201,8.3,9.8,-999,0.00,,---,0.71,VWS V14.01,2013-05-28 15:24:00,
2013-05-28 11:25:00,70.5,-99.9,-100.00,SSW,198,6.2,9.1,-999,0.00,,---,0.71,VWS V14.01,2013-05-28 15:25:00,
2013-05-28 11:27:00,71.7,-99.9,-100.00,SW,217,4.2,6.0,-999,0.00,,---,0.71,VWS V14.01,2013-05-28 15:27:00,
2013-05-28 11:28:00,73.3,-99.9,-100.00,WSW,238,6.1,6.1,-999,0.00,,---,0.71,VWS V14.01,2013-05-28 15:28:00,
2013-05-28 11:29:00,73.6,-99.9,-100.00,South,188,7.0,9.5,-999,0.00,,---,0.71,VWS V14.01,2013-05-28 15:29:00,
2013-05-28 11:30:00,73.6,-99.9,-100.00,SW,225,6.1,6.3,-999,0.00,,---,0.71,VWS V14.01,2013-05-28 15:30:00,
2013-05-28 11:33:00,72.7,-99.9,-100.00,South,174,6.0,6.0,-999,0.00,,---,0.71,VWS V14.01,2013-05-28 15:33:00,
2013-05-28 11:34:00,70.8,-99.9,-100.00,West,267,6.2,6.6,-999,0.00,,---,0.71,VWS V14.01,2013-05-28 15:34:00,
2013-05-28 11:35:00,71.4,-99.9,-100.00,SW,222,3.5,6.3,-999,0.00,,---,0.71,VWS V14.01,2013-05-28 15:35:00,
2013-05-28 11:38:00,71.7,-99.9,-100.00,WSW,253,3.3,3.5,-999,0.00,,---,0.71,VWS V14.01,2013-05-28 15:38:00,
2013-05-28 11:39:00,71.7,-99.9,-100.00,WSW,238,3.4,3.4,-999,0.00,,---,0.71,VWS V14.01,2013-05-28 15:39:00,
2013-05-28 11:40:00,71.4,-99.9,-100.00,WSW,250,4.8,6.0,-999,0.00,,---,0.71,VWS V14.01,2013-05-28 15:40:00,
2013-05-28 11:43:00,69.9,-99.9,-100.00,SW,228,5.0,8.3,-999,0.00,,---,0.71,VWS V14.01,2013-05-28 15:43:00,
2013-05-28 11:44:00,69.5,-99.9,-100.00,WSW,243,4.3,5.0,-999,0.00,,---,0.71,VWS V14.01,2013-05-28 15:44:00,
2013-05-28 11:45:00,69.0,-99.9,-100.00,SW,221,4.7,5.4,-999,0.00,,---,0.71,VWS V14.01,2013-05-28 15:45:00,
2013-05-28 11:48:00,68.2,-99.9,-100.00,WSW,246,5.2,7.0,-999,0.00,,---,0.72,VWS V14.01,2013-05-28 15:48:00,
2013-05-28 11:49:00,68.2,-99.9,-100.00,SSW,205,4.8,7.0,-999,0.00,,---,0.72,VWS V14.01,2013-05-28 15:49:00,
2013-05-28 11:51:00,68.2,-99.9,-100.00,SW,236,5.1,7.8,-999,0.00,,---,0.72,VWS V14.01,2013-05-28 15:51:00,
2013-05-28 11:53:00,68.2,-99.9,-100.00,SW,221,8.7,8.7,-999,0.00,,---,0.72,VWS V14.01,2013-05-28 15:53:00,
2013-05-28 11:54:00,68.2,-99.9,-100.00,SW,228,5.5,8.7,-999,0.00,,---,0.72,VWS V14.01,2013-05-28 15:54:00,
2013-05-28 11:55:00,68.7,-99.9,-100.00,SSW,210,5.7,5.7,-999,0.00,,---,0.72,VWS V14.01,2013-05-28 15:55:00,
2013-05-28 11:56:00,69.0,-99.9,-100.00,SSW,208,5.3,6.3,-999,0.00,,---,0.72,VWS V14.01,2013-05-28 15:56:00,
2013-05-28 11:58:00,69.0,-99.9,-100.00,SW,215,7.8,8.1,-999,0.00,,---,0.72,VWS V14.01,2013-05-28 15:58:00,
2013-05-28 11:59:00,69.0,-99.9,-100.00,SW,236,6.5,8.1,-999,0.00,,---,0.72,VWS V14.01,2013-05-28 15:59:00,
2013-05-28 12:00:00,69.0,-99.9,-100.00,WSW,253,5.9,6.5,-999,0.00,,---,0.72,VWS V14.01,2013-05-28 16:00:00,
2013-05-28 12:01:00,69.0,-99.9,-100.00,WSW,238,4.8,7.3,-999,0.00,,---,0.72,VWS V14.01,2013-05-28 16:01:00,
2013-05-28 12:03:00,69.0,-99.9,-100.00,SSW,208,2.6,3.2,-999,0.00,,---,0.72,VWS V14.01,2013-05-28 16:03:00,
2013-05-28 12:04:00,69.0,-99.9,-100.00,SW,231,4.5,4.5,-999,0.00,,---,0.72,VWS V14.01,2013-05-28 16:04:00,
2013-05-28 12:05:00,69.0,-99.9,-100.00,SSW,204,3.4,6.0,-999,0.00,,---,0.72,VWS V14.01,2013-05-28 16:05:00,
2013-05-28 12:06:00,69.0,-99.9,-100.00,South,188,6.0,6.6,-999,0.00,,---,0.72,VWS V14.01,2013-05-28 16:06:00,
2013-05-28 12:08:00,69.5,-99.9,-100.00,WSW,245,4.8,7.3,-999,0.00,,---,0.72,VWS V14.01,2013-05-28 16:08:00,
2013-05-28 12:09:00,69.9,-99.9,-100.00,SW,224,3.4,5.0,-999,0.00,,---,0.72,VWS V14.01,2013-05-28 16:09:00,
2013-05-28 12:10:00,69.9,-99.9,-100.00,SW,221,4.7,6.1,-999,0.00,,---,0.72,VWS V14.01,2013-05-28 16:10:00,
2013-05-28 12:11:00,69.3,-99.9,-100.00,WSW,248,4.3,5.4,-999,0.00,,---,0.72,VWS V14.01,2013-05-28 16:11:00,
2013-05-28 12:13:00,69.9,-99.9,-100.00,SW,219,5.3,6.0,-999,0.00,,---,0.72,VWS V14.01,2013-05-28 16:13:00,
2013-05-28 12:14:00,70.5,-99.9,-100.00,SW,224,6.0,6.0,-999,0.00,,---,0.72,VWS V14.01,2013-05-28 16:14:00,
2013-05-28 12:15:00,70.5,-99.9,-100.00,West,259,4.1,6.0,-999,0.00,,---,0.72,VWS V14.01,2013-05-28 16:15:00,
2013-05-28 12:16:00,70.2,-99.9,-100.00,South,174,3.0,4.3,-999,0.00,,---,0.72,VWS V14.01,2013-05-28 16:16:00,
2013-05-28 12:19:00,70.8,-99.9,-100.00,SW,215,3.2,4.1,-999,0.00,,---,0.72,VWS V14.01,2013-05-28 16:19:00,
2013-05-28 12:20:00,71.7,-99.9,-100.00,SSW,204,3.2,5.6,-999,0.00,,---,0.72,VWS V14.01,2013-05-28 16:20:00,
2013-05-28 12:21:00,72.3,-99.9,-100.00,SSE,165,3.2,4.3,-999,0.00,,---,0.72,VWS V14.01,2013-05-28 16:21:00,
2013-05-28 12:24:00,71.7,-99.9,-100.00,South,177,3.3,8.5,-999,0.00,,---,0.72,VWS V14.01,2013-05-28 16:24:00,
2013-05-28 12:25:00,71.1,-99.9,-100.00,SSW,211,4.2,7.1,-999,0.00,,---,0.72,VWS V14.01,2013-05-28 16:25:00,
2013-05-28 12:26:00,71.4,-99.9,-100.00,SSW,205,0.0,2.8,-999,0.00,,---,0.72,VWS V14.01,2013-05-28 16:26:00,
2013-05-28 12:29:00,70.5,-99.9,-100.00,SSW,210,5.5,7.5,-999,0.00,,---,0.72,VWS V14.01,2013-05-28 16:29:00,
2013-05-28 12:30:00,70.8,-99.9,-100.00,SSW,194,7.6,7.8,-999,0.00,,---,0.72,VWS V14.01,2013-05-28 16:30:00,
2013-05-28 12:31:00,70.8,-99.9,-100.00,SSW,193,2.1,6.1,-999,0.00,,---,0.72,VWS V14.01,2013-05-28 16:31:00,
2013-05-28 12:34:00,72.0,-99.9,-100.00,SW,215,10.4,10.4,-999,0.00,,---,0.72,VWS V14.01,2013-05-28 16:34:00,
2013-05-28 12:35:00,71.7,-99.9,-100.00,SSW,197,4.3,10.4,-999,0.00,,---,0.72,VWS V14.01,2013-05-28 16:35:00,
2013-05-28 12:36:00,72.7,-99.9,-100.00,WSW,248,5.3,5.5,-999,0.00,,---,0.72,VWS V14.01,2013-05-28 16:36:00,
2013-05-28 12:37:00,72.7,-99.9,-100.00,South,180,6.3,6.3,-999,0.00,,---,0.72,VWS V14.01,2013-05-28 16:37:00,
2013-05-28 12:39:00,71.7,-99.9,-100.00,SSW,210,3.4,6.1,-999,0.00,,---,0.72,VWS V14.01,2013-05-28 16:39:00,
2013-05-28 12:40:00,70.8,-99.9,-100.00,SSW,195,7.0,7.3,-999,0.00,,---,0.72,VWS V14.01,2013-05-28 16:40:00,
2013-05-28 12:41:00,71.7,-99.9,-100.00,WSW,246,8.7,9.2,-999,0.00,,---,0.72,VWS V14.01,2013-05-28 16:41:00,
2013-05-28 12:42:00,71.7,-99.9,-100.00,SW,232,4.3,6.7,-999,0.00,,---,0.72,VWS V14.01,2013-05-28 16:42:00,
2013-05-28 12:44:00,73.0,-99.9,-100.00,SW,225,6.3,8.3,-999,0.00,,---,0.72,VWS V14.01,2013-05-28 16:44:00,
2013-05-28 12:45:00,72.7,-99.9,-100.00,SSE,152,3.2,3.2,-999,0.00,,---,0.72,VWS V14.01,2013-05-28 16:45:00,
2013-05-28 12:46:00,72.3,-99.9,-100.00,SW,218,3.5,4.3,-999,0.00,,---,0.72,VWS V14.01,2013-05-28 16:46:00,
2013-05-28 12:47:00,72.7,-99.9,-100.00,South,186,4.5,4.5,-999,0.00,,---,0.72,VWS V14.01,2013-05-28 16:47:00,
2013-05-28 12:49:00,73.0,-99.9,-100.00,SW,221,0.0,3.2,-999,0.00,,---,0.72,VWS V14.01,2013-05-28 16:49:00,
2013-05-28 12:50:00,72.7,-99.9,-100.00,SSW,205,4.1,4.1,-999,0.00,,---,0.72,VWS V14.01,2013-05-28 16:50:00,
2013-05-28 12:51:00,72.7,-99.9,-100.00,SSW,207,3.0,4.1,-999,0.00,,---,0.72,VWS V14.01,2013-05-28 16:51:00,
2013-05-28 12:52:00,71.7,-99.9,-100.00,SSE,150,3.1,5.8,-999,0.00,,---,0.72,VWS V14.01,2013-05-28 16:52:00,
2013-05-28 12:53:00,71.7,-99.9,-100.00,SSW,197,5.8,7.3,-999,0.00,,---,0.72,VWS V14.01,2013-05-28 16:53:00,
2013-05-28 12:55:00,72.0,-99.9,-100.00,South,190,6.8,6.8,-999,0.00,,---,0.72,VWS V14.01,2013-05-28 16:55:00,
2013-05-28 12:56:00,71.7,-99.9,-100.00,South,177,4.8,8.1,-999,0.00,,---,0.72,VWS V14.01,2013-05-28 16:56:00,
2013-05-28 12:57:00,71.1,-99.9,-100.00,SSE,153,3.1,6.1,-999,0.00,,---,0.72,VWS V14.01,2013-05-28 16:57:00,
2013-05-28 12:58:00,71.7,-99.9,-100.00,SSE,153,0.0,0.0,-999,0.00,,---,0.72,VWS V14.01,2013-05-28 16:58:00,
2013-05-28 13:00:00,71.7,-99.9,-100.00,SSW,204,7.2,8.7,-999,0.00,,---,0.72,VWS V14.01,2013-05-28 17:00:00,
2013-05-28 13:01:00,71.4,-99.9,-100.00,South,180,6.3,7.4,-999,0.00,,---,0.72,VWS V14.01,2013-05-28 17:01:00,
2013-05-28 13:02:00,71.7,-99.9,-100.00,South,172,4.8,6.8,-999,0.00,,---,0.72,VWS V14.01,2013-05-28 17:02:00,
2013-05-28 13:03:00,71.7,-99.9,-100.00,SE,124,0.0,6.3,-999,0.00,,---,0.72,VWS V14.01,2013-05-28 17:03:00,
2013-05-28 13:05:00,74.6,-99.9,-100.00,SW,221,5.3,5.3,-999,0.00,,---,0.72,VWS V14.01,2013-05-28 17:05:00,
2013-05-28 13:06:00,75.2,-99.9,-100.00,SW,228,4.3,5.3,-999,0.00,,---,0.72,VWS V14.01,2013-05-28 17:06:00,
2013-05-28 13:07:00,73.6,-99.9,-100.00,South,188,7.4,7.4,-999,0.00,,---,0.72,VWS V14.01,2013-05-28 17:07:00,
2013-05-28 13:08:00,74.6,-99.9,-100.00,SSE,166,2.7,7.4,-999,0.00,,---,0.72,VWS V14.01,2013-05-28 17:08:00,
2013-05-28 13:10:00,75.5,-99.9,-100.00,SW,231,5.4,5.4,-999,0.00,,---,0.72,VWS V14.01,2013-05-28 17:10:00,
2013-05-28 13:11:00,76.1,-99.9,-100.00,South,190,0.0,0.0,-999,0.00,,---,0.72,VWS V14.01,2013-05-28 17:11:00,
2013-05-28 13:12:00,76.4,-99.9,-100.00,WSW,242,6.2,6.2,-999,0.00,,---,0.72,VWS V14.01,2013-05-28 17:12:00,
2013-05-28 13:13:00,76.4,-99.9,-100.00,SSW,208,0.0,6.2,-999,0.00,,---,0.72,VWS V14.01,2013-05-28 17:13:00,
2013-05-28 13:15:00,75.8,-99.9,-100.00,SSW,194,4.8,4.8,-999,0.00,,---,0.72,VWS V14.01,2013-05-28 17:15:00,
2013-05-28 13:16:00,75.5,-99.9,-100.00,SSW,197,5.1,6.8,-999,0.00,,---,0.72,VWS V14.01,2013-05-28 17:16:00,
2013-05-28 13:17:00,75.5,-99.9,-100.00,SW,231,4.8,6.8,-999,0.00,,---,0.72,VWS V14.01,2013-05-28 17:17:00,
2013-05-28 13:18:00,76.4,-99.9,-100.00,WSW,239,2.7,3.3,-999,0.00,,---,0.72,VWS V14.01,2013-05-28 17:18:00,
2013-05-28 13:21:00,76.8,-99.9,-100.00,SSE,163,4.1,8.0,-999,0.00,,---,0.72,VWS V14.01,2013-05-28 17:21:00,
2013-05-28 13:22:00,75.8,-99.9,-100.00,SSW,201,3.5,7.3,-999,0.00,,---,0.72,VWS V14.01,2013-05-28 17:22:00,
2013-05-28 13:23:00,76.8,-99.9,-100.00,SSE,148,5.3,8.4,-999,0.00,,---,0.72,VWS V14.01,2013-05-28 17:23:00,
2013-05-28 13:26:00,76.4,-99.9,-100.00,South,176,0.0,6.9,-999,0.00,,---,0.72,VWS V14.01,2013-05-28 17:26:00,
2013-05-28 13:27:00,77.4,-99.9,-100.00,South,187,3.5,6.6,-999,0.00,,---,0.72,VWS V14.01,2013-05-28 17:27:00,
2013-05-28 13:28:00,77.4,-99.9,-100.00,SSW,202,4.3,6.2,-999,0.00,,---,0.72,VWS V14.01,2013-05-28 17:28:00,
2013-05-28 13:31:00,75.5,-99.9,-100.00,SSE,152,5.2,11.7,-999,0.00,,---,0.72,VWS V14.01,2013-05-28 17:31:00,
2013-05-28 13:32:00,76.4,-99.9,-100.00,SSE,149,9.3,9.3,-999,0.00,,---,0.72,VWS V14.01,2013-05-28 17:32:00,
2013-05-28 13:33:00,77.1,-99.9,-100.00,SSE,166,9.2,9.2,-999,0.00,,---,0.72,VWS V14.01,2013-05-28 17:33:00,
2013-05-28 13:36:00,77.1,-99.9,-100.00,South,179,5.1,7.0,-999,0.00,,---,0.72,VWS V14.01,2013-05-28 17:36:00,
2013-05-28 13:37:00,76.1,-99.9,-100.00,South,180,4.4,9.6,-999,0.00,,---,0.72,VWS V14.01,2013-05-28 17:37:00,
2013-05-28 13:39:00,76.4,-99.9,-100.00,South,173,4.8,7.7,-999,0.00,,---,0.72,VWS V14.01,2013-05-28 17:39:00,
2013-05-28 13:41:00,76.4,-99.9,-100.00,SSW,205,6.6,13.3,-999,0.00,,---,0.72,VWS V14.01,2013-05-28 17:41:00,
2013-05-28 13:42:00,77.4,-99.9,-100.00,WSW,240,3.2,6.6,-999,0.00,,---,0.72,VWS V14.01,2013-05-28 17:42:00,
2013-05-28 13:44:00,76.8,-99.9,-100.00,South,174,5.4,8.8,-999,0.00,,---,0.72,VWS V14.01,2013-05-28 17:44:00,
2013-05-28 13:46:00,79.1,-99.9,-100.00,South,170,4.6,4.6,-999,0.00,,---,0.72,VWS V14.01,2013-05-28 17:46:00,
2013-05-28 13:47:00,78.4,-99.9,-100.00,South,177,7.5,7.5,-999,0.00,,---,0.72,VWS V14.01,2013-05-28 17:47:00,
2013-05-28 13:49:00,76.8,-99.9,-100.00,SSW,204,4.2,8.1,-999,0.00,,---,0.72,VWS V14.01,2013-05-28 17:49:00,
2013-05-28 13:51:00,76.1,-99.9,-100.00,West,259,3.4,4.7,-999,0.00,,---,0.72,VWS V14.01,2013-05-28 17:51:00,
2013-05-28 13:52:00,75.5,-99.9,-100.00,South,180,7.6,8.6,-999,0.00,,---,0.72,VWS V14.01,2013-05-28 17:52:00,
2013-05-28 13:54:00,75.5,-99.9,-100.00,South,174,6.6,6.6,-999,0.00,,---,0.72,VWS V14.01,2013-05-28 17:54:00,
2013-05-28 13:56:00,76.4,-99.9,-100.00,WSW,256,5.2,5.2,-999,0.00,,---,0.72,VWS V14.01,2013-05-28 17:56:00,
2013-05-28 13:57:00,75.8,-99.9,-100.00,SSW,204,4.6,5.6,-999,0.00,,---,0.72,VWS V14.01,2013-05-28 17:57:00,
2013-05-28 13:58:00,76.1,-99.9,-100.00,SW,219,5.5,5.6,-999,0.00,,---,0.72,VWS V14.01,2013-05-28 17:58:00,
2013-05-28 13:59:00,76.8,-99.9,-100.00,SW,235,3.1,4.8,-999,0.00,,---,0.72,VWS V14.01,2013-05-28 17:59:00,
2013-05-28 14:01:00,76.1,-99.9,-100.00,SSE,152,3.5,5.7,-999,0.00,,---,0.72,VWS V14.01,2013-05-28 18:01:00,
2013-05-28 14:02:00,76.1,-99.9,-100.00,South,172,3.0,3.2,-999,0.00,,---,0.72,VWS V14.01,2013-05-28 18:02:00,
2013-05-28 14:03:00,76.4,-99.9,-100.00,South,172,0.0,3.2,-999,0.00,,---,0.72,VWS V14.01,2013-05-28 18:03:00,
2013-05-28 14:04:00,76.4,-99.9,-100.00,SW,228,6.8,6.8,-999,0.00,,---,0.72,VWS V14.01,2013-05-28 18:04:00,
2013-05-28 14:07:00,76.1,-99.9,-100.00,South,183,9.0,9.0,-999,0.00,,---,0.72,VWS V14.01,2013-05-28 18:07:00,
2013-05-28 14:08:00,75.5,-99.9,-100.00,SSE,150,3.4,6.8,-999,0.00,,---,0.72,VWS V14.01,2013-05-28 18:08:00,
2013-05-28 14:10:00,77.1,-99.9,-100.00,South,186,3.2,3.4,-999,0.00,,---,0.72,VWS V14.01,2013-05-28 18:10:00,
2013-05-28 14:12:00,78.4,-99.9,-100.00,SW,236,2.6,5.0,-999,0.00,,---,0.72,VWS V14.01,2013-05-28 18:12:00,
2013-05-28 14:13:00,78.4,-99.9,-100.00,South,183,4.8,7.0,-999,0.00,,---,0.72,VWS V14.01,2013-05-28 18:13:00,
2013-05-28 14:14:00,78.4,-99.9,-100.00,WSW,246,5.0,5.5,-999,0.00,,---,0.72,VWS V14.01,2013-05-28 18:14:00,
2013-05-28 14:15:00,80.9,-99.9,-100.00,SSW,210,6.9,6.9,-999,0.00,,---,0.72,VWS V14.01,2013-05-28 18:15:00,
2013-05-28 14:17:00,81.4,-99.9,-100.00,SW,225,6.4,7.1,-999,0.00,,---,0.72,VWS V14.01,2013-05-28 18:17:00,
2013-05-28 14:18:00,80.1,-99.9,-100.00,SW,218,8.2,11.0,-999,0.00,,---,0.72,VWS V14.01,2013-05-28 18:18:00,
2013-05-28 14:19:00,78.8,-99.9,-100.00,SSW,212,5.2,6.3,-999,0.00,,---,0.72,VWS V14.01,2013-05-28 18:19:00,
2013-05-28 14:21:00,80.4,-99.9,-100.00,SSW,208,0.0,4.9,-999,0.00,,---,0.72,VWS V14.01,2013-05-28 18:21:00,
2013-05-28 14:22:00,81.6,-99.9,-100.00,South,173,2.5,4.8,-999,0.00,,---,0.72,VWS V14.01,2013-05-28 18:22:00,
2013-05-28 14:23:00,81.4,-99.9,-100.00,SSW,195,5.2,6.6,-999,0.00,,---,0.72,VWS V14.01,2013-05-28 18:23:00,
2013-05-28 14:24:00,81.4,-99.9,-100.00,SW,218,11.6,11.6,-999,0.00,,---,0.72,VWS V14.01,2013-05-28 18:24:00,
2013-05-28 14:26:00,81.4,-99.9,-100.00,WSW,250,6.4,7.2,-999,0.00,,---,0.72,VWS V14.01,2013-05-28 18:26:00,
2013-05-28 14:28:00,80.4,-99.9,-100.00,South,177,9.9,9.9,-999,0.00,,---,0.72,VWS V14.01,2013-05-28 18:28:00,
2013-05-28 14:29:00,79.4,-99.9,-100.00,SW,224,5.6,7.0,-999,0.00,,---,0.72,VWS V14.01,2013-05-28 18:29:00,
2013-05-28 14:31:00,78.4,-99.9,-100.00,WSW,242,6.6,6.6,-999,0.00,,---,0.72,VWS V14.01,2013-05-28 18:31:00,
2013-05-28 14:33:00,79.4,-99.9,-100.00,SW,232,5.5,7.1,-999,0.00,,---,0.72,VWS V14.01,2013-05-28 18:33:00,
2013-05-28 14:34:00,81.4,-99.9,-100.00,South,186,5.0,5.4,-999,0.00,,---,0.72,VWS V14.01,2013-05-28 18:34:00,
2013-05-28 14:36:00,80.4,-99.9,-100.00,South,173,7.2,7.2,-999,0.00,,---,0.72,VWS V14.01,2013-05-28 18:36:00,
2013-05-28 14:38:00,80.4,-99.9,-100.00,South,188,5.8,5.8,-999,0.00,,---,0.72,VWS V14.01,2013-05-28 18:38:00,
2013-05-28 14:39:00,79.4,-99.9,-100.00,SW,231,2.9,3.2,-999,0.00,,---,0.72,VWS V14.01,2013-05-28 18:39:00,
2013-05-28 14:42:00,81.4,-99.9,-100.00,SSE,156,8.4,8.4,-999,0.00,,---,0.72,VWS V14.01,2013-05-28 18:42:00,
2013-05-28 14:43:00,81.4,-99.9,-100.00,West,259,2.9,7.1,-999,0.00,,---,0.72,VWS V14.01,2013-05-28 18:43:00,
2013-05-28 14:44:00,80.4,-99.9,-100.00,South,190,3.1,4.1,-999,0.00,,---,0.72,VWS V14.01,2013-05-28 18:44:00,
2013-05-28 14:47:00,80.4,-99.9,-100.00,South,170,4.8,6.7,-999,0.00,,---,0.72,VWS V14.01,2013-05-28 18:47:00,
2013-05-28 14:48:00,80.4,-99.9,-100.00,SSW,205,3.5,9.7,-999,0.00,,---,0.72,VWS V14.01,2013-05-28 18:48:00,
2013-05-28 14:49:00,81.4,-99.9,-100.00,SSW,210,6.6,9.5,-999,0.00,,---,0.72,VWS V14.01,2013-05-28 18:49:00,
2013-05-28 14:52:00,82.4,-99.9,-100.00,SSW,207,4.8,10.2,-999,0.00,,---,0.72,VWS V14.01,2013-05-28 18:52:00,
2013-05-28 14:53:00,80.9,-99.9,-100.00,South,172,4.7,6.2,-999,0.00,,---,0.72,VWS V14.01,2013-05-28 18:53:00,
2013-05-28 14:54:00,80.9,-99.9,-100.00,SE,132,7.7,8.0,-999,0.00,,---,0.72,VWS V14.01,2013-05-28 18:54:00,
2013-05-28 14:57:00,79.4,-99.9,-100.00,South,174,10.7,10.7,-999,0.00,,---,0.72,VWS V14.01,2013-05-28 18:57:00,
2013-05-28 14:58:00,78.4,-99.9,-100.00,SW,221,7.0,7.0,-999,0.00,,---,0.72,VWS V14.01,2013-05-28 18:58:00,
2013-05-28 14:59:00,78.4,-99.9,-100.00,South,190,9.6,9.6,-999,0.00,,---,0.72,VWS V14.01,2013-05-28 18:59:00,
2013-05-28 15:02:00,80.9,-99.9,-100.00,SSW,208,5.6,5.6,-999,0.00,,---,0.72,VWS V14.01,2013-05-28 19:02:00,
2013-05-28 15:03:00,81.4,-99.9,-100.00,SSW,194,5.1,5.5,-999,0.00,,---,0.72,VWS V14.01,2013-05-28 19:03:00,
2013-05-28 15:04:00,81.4,-99.9,-100.00,SSE,153,8.3,8.3,-999,0.00,,---,0.72,VWS V14.01,2013-05-28 19:04:00,
2013-05-28 15:07:00,79.4,-99.9,-100.00,SSE,150,7.0,9.9,-999,0.00,,---,0.72,VWS V14.01,2013-05-28 19:07:00,
2013-05-28 15:08:00,79.1,-99.9,-100.00,SW,217,5.5,9.5,-999,0.00,,---,0.72,VWS V14.01,2013-05-28 19:08:00,
2013-05-28 15:09:00,80.1,-99.9,-100.00,SSW,193,8.4,8.4,-999,0.00,,---,0.72,VWS V14.01,2013-05-28 19:09:00,
2013-05-28 15:10:00,80.4,-99.9,-100.00,SSW,193,7.5,11.2,-999,0.00,,---,0.72,VWS V14.01,2013-05-28 19:10:00,
2013-05-28 15:12:00,81.4,-99.9,-100.00,SSE,163,8.6,8.6,-999,0.00,,---,0.72,VWS V14.01,2013-05-28 19:12:00,
2013-05-28 15:14:00,80.9,-99.9,-100.00,SSW,200,4.4,7.4,-999,0.00,,---,0.72,VWS V14.01,2013-05-28 19:14:00,
2013-05-28 15:15:00,81.4,-99.9,-100.00,WSW,245,5.3,7.8,-999,0.00,,---,0.72,VWS V14.01,2013-05-28 19:15:00,
2013-05-28 15:18:00,81.4,-99.9,-100.00,SE,141,1.7,7.0,-999,0.00,,---,0.72,VWS V14.01,2013-05-28 19:18:00,
2013-05-28 15:19:00,80.5,-99.9,-100.00,SE,134,1.2,6.4,-999,0.00,,---,0.72,VWS V14.01,2013-05-28 19:19:00,
2013-05-28 15:20:00,80.4,-99.9,-100.00,SE,134,7.0,10.5,-999,0.00,,---,0.72,VWS V14.01,2013-05-28 19:20:00,
2013-05-28 15:23:00,79.1,-99.9,-100.00,SW,215,5.0,5.0,-999,0.00,,---,0.72,VWS V14.01,2013-05-28 19:23:00,
2013-05-28 15:24:00,80.4,-99.9,-100.00,West,262,6.5,7.4,-999,0.00,,---,0.72,VWS V14.01,2013-05-28 19:24:00,
2013-05-28 15:25:00,80.4,-99.9,-100.00,South,172,5.4,7.0,-999,0.00,,---,0.72,VWS V14.01,2013-05-28 19:25:00,
2013-05-28 15:28:00,80.4,-99.9,-100.00,SW,226,5.2,6.8,-999,0.00,,---,0.72,VWS V14.01,2013-05-28 19:28:00,
2013-05-28 15:29:00,80.5,-99.9,-100.00,SSE,149,5.6,6.8,-999,0.00,,---,0.72,VWS V14.01,2013-05-28 19:29:00,
2013-05-28 15:30:00,80.4,-99.9,-100.00,SSW,208,6.0,6.0,-999,0.00,,---,0.72,VWS V14.01,2013-05-28 19:30:00,
2013-05-28 15:34:00,78.8,-99.9,-100.00,SE,128,10.9,10.9,-999,0.00,,---,0.72,VWS V14.01,2013-05-28 19:34:00,
2013-05-28 15:35:00,77.8,-99.9,-100.00,West,259,3.5,6.1,-999,0.00,,---,0.72,VWS V14.01,2013-05-28 19:35:00,
2013-05-28 15:36:00,77.8,-99.9,-100.00,SW,226,0.0,4.9,-999,0.00,,---,0.72,VWS V14.01,2013-05-28 19:36:00,
2013-05-28 15:39:00,77.8,-99.9,-100.00,SSW,201,4.7,7.7,-999,0.00,,---,0.72,VWS V14.01,2013-05-28 19:39:00,
2013-05-28 15:40:00,77.8,-99.9,-100.00,SSE,156,7.9,7.9,-999,0.00,,---,0.72,VWS V14.01,2013-05-28 19:40:00,
2013-05-28 15:41:00,77.8,-99.9,-100.00,SSE,163,6.2,8.1,-999,0.00,,---,0.72,VWS V14.01,2013-05-28 19:41:00,
2013-05-28 15:44:00,78.1,-99.9,-100.00,SW,232,4.5,9.2,-999,0.00,,---,0.72,VWS V14.01,2013-05-28 19:44:00,
2013-05-28 15:45:00,77.8,-99.9,-100.00,WSW,245,7.3,7.3,-999,0.00,,---,0.72,VWS V14.01,2013-05-28 19:45:00,
2013-05-28 15:46:00,77.8,-99.9,-100.00,WSW,238,5.2,7.5,-999,0.00,,---,0.72,VWS V14.01,2013-05-28 19:46:00,
2013-05-28 15:49:00,77.8,-99.9,-100.00,SW,214,5.8,5.8,-999,0.00,,---,0.72,VWS V14.01,2013-05-28 19:49:00,
2013-05-28 15:50:00,78.1,-99.9,-100.00,SW,226,7.1,7.1,-999,0.00,,---,0.72,VWS V14.01,2013-05-28 19:50:00,
2013-05-28 15:51:00,77.8,-99.9,-100.00,SW,229,5.0,5.5,-999,0.00,,---,0.72,VWS V14.01,2013-05-28 19:51:00,
2013-05-28 15:52:00,78.8,-99.9,-100.00,WSW,243,0.0,6.2,-999,0.00,,---,0.72,VWS V14.01,2013-05-28 19:52:00,
2013-05-28 15:55:00,78.1,-99.9,-100.00,SSE,162,4.3,6.4,-999,0.00,,---,0.72,VWS V14.01,2013-05-28 19:55:00,
2013-05-28 15:56:00,78.1,-99.9,-100.00,SSE,149,5.4,9.9,-999,0.00,,---,0.72,VWS V14.01,2013-05-28 19:56:00,
2013-05-28 15:57:00,77.4,-99.9,-100.00,SE,135,4.6,5.2,-999,0.00,,---,0.72,VWS V14.01,2013-05-28 19:57:00,
2013-05-28 16:00:00,77.1,-99.9,-100.00,South,177,5.0,8.0,-999,0.00,,---,0.72,VWS V14.01,2013-05-28 20:00:00,
2013-05-28 16:01:00,77.1,-99.9,-100.00,WSW,239,5.7,5.7,-999,0.00,,---,0.72,VWS V14.01,2013-05-28 20:01:00,
2013-05-28 16:02:00,76.8,-99.9,-100.00,SSW,204,3.4,5.5,-999,0.00,,---,0.72,VWS V14.01,2013-05-28 20:02:00,
2013-05-28 16:05:00,76.1,-99.9,-100.00,SE,145,3.4,6.8,-999,0.00,,---,0.72,VWS V14.01,2013-05-28 20:05:00,
2013-05-28 16:06:00,76.1,-99.9,-100.00,SW,225,5.0,5.1,-999,0.00,,---,0.72,VWS V14.01,2013-05-28 20:06:00,
2013-05-28 16:07:00,76.4,-99.9,-100.00,SSE,159,2.3,5.7,-999,0.00,,---,0.72,VWS V14.01,2013-05-28 20:07:00,
2013-05-28 16:10:00,74.9,-99.9,-100.00,SW,218,0.0,5.0,-999,0.00,,---,0.72,VWS V14.01,2013-05-28 20:10:00,
2013-05-28 16:11:00,75.5,-99.9,-100.00,SSW,200,3.4,6.1,-999,0.00,,---,0.72,VWS V14.01,2013-05-28 20:11:00,
2013-05-28 16:12:00,74.9,-99.9,-100.00,SW,224,3.4,6.8,-999,0.00,,---,0.72,VWS V14.01,2013-05-28 20:12:00,
2013-05-28 16:15:00,74.6,-99.9,-100.00,SSE,152,6.6,6.8,-999,0.00,,---,0.72,VWS V14.01,2013-05-28 20:15:00,
2013-05-28 16:16:00,74.6,-99.9,-100.00,SSE,153,7.9,7.9,-999,0.00,,---,0.72,VWS V14.01,2013-05-28 20:16:00,
2013-05-28 16:17:00,74.9,-99.9,-100.00,SSE,159,4.7,5.5,-999,0.00,,---,0.72,VWS V14.01,2013-05-28 20:17:00,
2013-05-28 16:20:00,73.9,-99.9,-100.00,SSW,207,0.0,0.0,-999,0.00,,---,0.72,VWS V14.01,2013-05-28 20:20:00,
2013-05-28 16:21:00,73.9,-99.9,-100.00,SSW,207,0.0,0.0,-999,0.00,,---,0.72,VWS V14.01,2013-05-28 20:21:00,
2013-05-28 16:22:00,73.9,-99.9,-100.00,SSW,207,0.0,0.0,-999,0.00,,---,0.72,VWS V14.01,2013-05-28 20:22:00,
2013-05-28 16:25:00,73.9,-99.9,-100.00,South,191,6.2,7.1,-999,0.00,,---,0.72,VWS V14.01,2013-05-28 20:25:00,
2013-05-28 16:26:00,73.9,-99.9,-100.00,SSW,210,5.3,7.1,-999,0.00,,---,0.72,VWS V14.01,2013-05-28 20:26:00,
2013-05-28 16:27:00,73.9,-99.9,-100.00,SSW,212,3.3,5.2,-999,0.00,,---,0.72,VWS V14.01,2013-05-28 20:27:00,
2013-05-28 16:28:00,73.6,-99.9,-100.00,South,179,4.2,4.8,-999,0.00,,---,0.72,VWS V14.01,2013-05-28 20:28:00,
2013-05-28 16:30:00,73.3,-99.9,-100.00,SSW,208,0.0,5.0,-999,0.00,,---,0.72,VWS V14.01,2013-05-28 20:30:00,
2013-05-28 16:31:00,73.0,-99.9,-100.00,SSW,208,0.0,5.0,-999,0.00,,---,0.72,VWS V14.01,2013-05-28 20:31:00,
2013-05-28 16:32:00,73.6,-99.9,-100.00,South,173,3.4,7.0,-999,0.00,,---,0.72,VWS V14.01,2013-05-28 20:32:00,
2013-05-28 16:33:00,73.9,-99.9,-100.00,South,188,4.7,5.7,-999,0.00,,---,0.72,VWS V14.01,2013-05-28 20:33:00,
2013-05-28 16:35:00,73.0,-99.9,-100.00,ESE,118,0.0,0.0,-999,0.00,,---,0.72,VWS V14.01,2013-05-28 20:35:00,
2013-05-28 16:36:00,73.3,-99.9,-100.00,ESE,118,0.0,0.0,-999,0.00,,---,0.72,VWS V14.01,2013-05-28 20:36:00,
2013-05-28 16:37:00,72.7,-99.9,-100.00,SSE,155,3.5,3.5,-999,0.00,,---,0.72,VWS V14.01,2013-05-28 20:37:00,
2013-05-28 16:38:00,73.0,-99.9,-100.00,South,187,3.4,4.4,-999,0.00,,---,0.72,VWS V14.01,2013-05-28 20:38:00,
2013-05-28 16:40:00,72.7,-99.9,-100.00,SE,136,0.0,0.0,-999,0.00,,---,0.73,VWS V14.01,2013-05-28 20:40:00,
2013-05-28 16:41:00,72.0,-99.9,-100.00,SE,136,0.0,0.0,-999,0.00,,---,0.73,VWS V14.01,2013-05-28 20:41:00,
2013-05-28 16:43:00,71.7,-99.9,-100.00,SE,136,0.0,0.0,-999,0.00,,---,0.74,VWS V14.01,2013-05-28 20:43:00,
2013-05-28 16:46:00,71.7,-99.9,-100.00,SE,136,0.0,0.0,-999,0.00,,---,0.76,VWS V14.01,2013-05-28 20:46:00,
2013-05-28 16:47:00,71.7,-99.9,-100.00,SE,136,0.0,0.0,-999,0.00,,---,0.78,VWS V14.01,2013-05-28 20:47:00,
2013-05-28 16:48:00,71.7,-99.9,-100.00,SE,136,0.0,0.0,-999,0.00,,---,0.80,VWS V14.01,2013-05-28 20:48:00,
2013-05-28 16:51:00,71.1,-99.9,-100.00,SE,136,0.0,0.0,-999,0.00,,---,0.83,VWS V14.01,2013-05-28 20:51:00,
2013-05-28 16:52:00,71.1,-99.9,-100.00,SE,136,0.0,0.0,-999,0.00,,---,0.83,VWS V14.01,2013-05-28 20:52:00,
2013-05-28 16:53:00,71.1,-99.9,-100.00,SE,136,0.0,0.0,-999,0.00,,---,0.84,VWS V14.01,2013-05-28 20:53:00,
2013-05-28 16:56:00,71.1,-99.9,-100.00,SE,136,2.2,2.2,-999,0.00,,---,0.84,VWS V14.01,2013-05-28 20:56:00,
2013-05-28 16:57:00,71.1,-99.9,-100.00,West,263,3.5,4.1,-999,0.00,,---,0.84,VWS V14.01,2013-05-28 20:57:00,
2013-05-28 16:58:00,70.5,-99.9,-100.00,WSW,249,0.0,4.3,-999,0.00,,---,0.84,VWS V14.01,2013-05-28 20:58:00,
2013-05-28 17:01:00,70.2,-99.9,-100.00,SSW,212,3.1,3.1,-999,0.00,,---,0.85,VWS V14.01,2013-05-28 21:01:00,
2013-05-28 17:02:00,69.6,-99.9,-100.00,SSW,202,7.6,7.6,-999,0.00,,---,0.85,VWS V14.01,2013-05-28 21:02:00,
2013-05-28 17:03:00,69.6,-99.9,-100.00,SW,215,6.6,6.6,-999,0.00,,---,0.85,VWS V14.01,2013-05-28 21:03:00,
2013-05-28 17:06:00,68.7,-99.9,-100.00,South,172,4.7,6.9,-999,0.00,,---,0.91,VWS V14.01,2013-05-28 21:06:00,
2013-05-28 17:07:00,68.5,-99.9,-100.00,SSW,197,5.2,8.3,-999,0.00,,---,0.93,VWS V14.01,2013-05-28 21:07:00,
2013-05-28 17:08:00,68.5,-99.9,-100.00,SSE,155,5.3,10.1,-999,0.00,,---,0.96,VWS V14.01,2013-05-28 21:08:00,
2013-05-28 17:11:00,68.7,-99.9,-100.00,ENE,62,0.0,0.0,-999,0.00,,---,0.99,VWS V14.01,2013-05-28 21:11:00,
2013-05-28 17:12:00,69.0,-99.9,-100.00,ENE,62,0.0,0.0,-999,0.00,,---,0.99,VWS V14.01,2013-05-28 21:12:00,
2013-05-28 17:13:00,69.4,-99.9,-100.00,ENE,62,0.0,0.0,-999,0.00,,---,0.99,VWS V14.01,2013-05-28 21:13:00,
2013-05-28 17:14:00,69.4,-99.9,-100.00,ENE,62,0.0,0.0,-999,0.00,,---,0.99,VWS V14.01,2013-05-28 21:14:00,
2013-05-28 17:16:00,69.4,-99.9,-100.00,ENE,62,0.0,0.0,-999,0.00,,---,0.99,VWS V14.01,2013-05-28 21:16:00,
2013-05-28 17:17:00,68.7,-99.9,-100.00,ENE,62,0.0,0.0,-999,0.00,,---,0.99,VWS V14.01,2013-05-28 21:17:00,
2013-05-28 17:18:00,69.4,-99.9,-100.00,ENE,62,0.0,0.0,-999,0.00,,---,0.99,VWS V14.01,2013-05-28 21:18:00,
2013-05-28 17:19:00,69.4,-99.9,-100.00,ENE,62,0.0,0.0,-999,0.00,,---,0.99,VWS V14.01,2013-05-28 21:19:00,
2013-05-28 17:21:00,69.9,-99.9,-100.00,ENE,62,0.0,0.0,-999,0.00,,---,0.99,VWS V14.01,2013-05-28 21:21:00,
2013-05-28 17:22:00,70.8,-99.9,-100.00,ENE,62,0.0,0.0,-999,0.00,,---,0.99,VWS V14.01,2013-05-28 21:22:00,
2013-05-28 17:23:00,71.1,-99.9,-100.00,ENE,62,0.0,0.0,-999,0.00,,---,0.99,VWS V14.01,2013-05-28 21:23:00,
2013-05-28 17:24:00,71.1,-99.9,-100.00,ENE,62,0.0,0.0,-999,0.00,,---,0.99,VWS V14.01,2013-05-28 21:24:00,
2013-05-28 17:26:00,73.0,-99.9,-100.00,ENE,62,0.0,0.0,-999,0.00,,---,0.99,VWS V14.01,2013-05-28 21:26:00,
2013-05-28 17:27:00,74.9,-99.9,-100.00,ENE,62,0.0,0.0,-999,0.00,,---,0.99,VWS V14.01,2013-05-28 21:27:00,
2013-05-28 17:28:00,75.5,-99.9,-100.00,ENE,62,0.0,0.0,-999,0.00,,---,0.99,VWS V14.01,2013-05-28 21:28:00,
2013-05-28 17:29:00,75.8,-99.9,-100.00,ENE,62,0.0,0.0,-999,0.00,,---,0.99,VWS V14.01,2013-05-28 21:29:00,
2013-05-28 17:31:00,75.2,-99.9,-100.00,ENE,62,0.0,0.0,-999,0.00,,---,0.99,VWS V14.01,2013-05-28 21:31:00,
2013-05-28 17:32:00,75.2,-99.9,-100.00,ENE,62,0.0,0.0,-999,0.00,,---,0.99,VWS V14.01,2013-05-28 21:32:00,
2013-05-28 17:33:00,74.9,-99.9,-100.00,ENE,62,0.0,0.0,-999,0.00,,---,0.99,VWS V14.01,2013-05-28 21:33:00,
2013-05-28 17:34:00,74.9,-99.9,-100.00,ENE,62,0.0,0.0,-999,0.00,,---,0.99,VWS V14.01,2013-05-28 21:34:00,
2013-05-28 17:36:00,74.6,-99.9,-100.00,ENE,62,0.0,0.0,-999,0.00,,---,0.99,VWS V14.01,2013-05-28 21:36:00,
2013-05-28 17:37:00,74.9,-99.9,-100.00,ENE,62,0.0,0.0,-999,0.00,,---,0.99,VWS V14.01,2013-05-28 21:37:00,
2013-05-28 17:38:00,74.9,-99.9,-100.00,ENE,62,0.0,0.0,-999,0.00,,---,0.99,VWS V14.01,2013-05-28 21:38:00,
2013-05-28 17:39:00,74.9,-99.9,-100.00,ENE,62,0.0,0.0,-999,0.00,,---,0.99,VWS V14.01,2013-05-28 21:39:00,
2013-05-28 17:41:00,74.9,-99.9,-100.00,ENE,62,0.0,0.0,-999,0.00,,---,0.99,VWS V14.01,2013-05-28 21:41:00,
2013-05-28 17:42:00,74.9,-99.9,-100.00,ENE,62,0.0,0.0,-999,0.00,,---,0.99,VWS V14.01,2013-05-28 21:42:00,
2013-05-28 17:43:00,74.6,-99.9,-100.00,ENE,62,0.0,0.0,-999,0.00,,---,0.99,VWS V14.01,2013-05-28 21:43:00,
2013-05-28 17:44:00,73.9,-99.9,-100.00,ENE,62,0.0,0.0,-999,0.00,,---,0.99,VWS V14.01,2013-05-28 21:44:00,
2013-05-28 17:46:00,73.9,-99.9,-100.00,ENE,62,0.0,0.0,-999,0.00,,---,0.99,VWS V14.01,2013-05-28 21:46:00,
2013-05-28 17:48:00,73.9,-99.9,-100.00,ENE,62,0.0,0.0,-999,0.00,,---,0.99,VWS V14.01,2013-05-28 21:48:00,
2013-05-28 17:49:00,73.6,-99.9,-100.00,ENE,62,0.0,0.0,-999,0.00,,---,0.99,VWS V14.01,2013-05-28 21:49:00,
2013-05-28 17:51:00,73.9,-99.9,-100.00,ENE,62,0.0,0.0,-999,0.00,,---,0.99,VWS V14.01,2013-05-28 21:51:00,
2013-05-28 17:53:00,74.2,-99.9,-100.00,ENE,62,0.0,0.0,-999,0.00,,---,0.99,VWS V14.01,2013-05-28 21:53:00,
2013-05-28 17:54:00,73.9,-99.9,-100.00,ENE,62,0.0,0.0,-999,0.00,,---,0.99,VWS V14.01,2013-05-28 21:54:00,
2013-05-28 17:57:00,74.6,-99.9,-100.00,ENE,62,0.0,0.0,-999,0.00,,---,0.99,VWS V14.01,2013-05-28 21:57:00,
2013-05-28 17:58:00,74.9,-99.9,-100.00,ENE,62,0.0,0.0,-999,0.00,,---,0.99,VWS V14.01,2013-05-28 21:58:00,
2013-05-28 17:59:00,74.9,-99.9,-100.00,ENE,62,0.0,0.0,-999,0.00,,---,0.99,VWS V14.01,2013-05-28 21:59:00,
2013-05-28 18:02:00,75.2,-99.9,-100.00,ENE,62,0.0,0.0,-999,0.00,,---,0.99,VWS V14.01,2013-05-28 22:02:00,
2013-05-28 18:04:00,74.9,-99.9,-100.00,ENE,62,0.0,0.0,-999,0.00,,---,0.99,VWS V14.01,2013-05-28 22:04:00,
2013-05-28 18:05:00,75.2,-99.9,-100.00,ENE,62,0.0,0.0,-999,0.00,,---,0.99,VWS V14.01,2013-05-28 22:05:00,
2013-05-28 18:07:00,75.2,-99.9,-100.00,ENE,62,0.0,0.0,-999,0.00,,---,0.99,VWS V14.01,2013-05-28 22:07:00,
2013-05-28 18:09:00,75.2,-99.9,-100.00,ENE,62,0.0,0.0,-999,0.00,,---,0.99,VWS V14.01,2013-05-28 22:09:00,
2013-05-28 18:10:00,75.5,-99.9,-100.00,ENE,62,0.0,0.0,-999,0.00,,---,0.99,VWS V14.01,2013-05-28 22:10:00,
2013-05-28 18:12:00,75.2,-99.9,-100.00,ENE,62,0.0,0.0,-999,0.00,,---,0.99,VWS V14.01,2013-05-28 22:12:00,
2013-05-28 18:14:00,74.9,-99.9,-100.00,ENE,62,0.0,0.0,-999,0.00,,---,0.99,VWS V14.01,2013-05-28 22:14:00,
2013-05-28 18:15:00,74.9,-99.9,-100.00,ENE,62,0.0,0.0,-999,0.00,,---,0.99,VWS V14.01,2013-05-28 22:15:00,
2013-05-28 18:17:00,74.9,-99.9,-100.00,ENE,62,0.0,0.0,-999,0.00,,---,0.99,VWS V14.01,2013-05-28 22:17:00,
2013-05-28 18:19:00,74.9,-99.9,-100.00,SSW,195,5.3,5.7,-999,0.00,,---,0.99,VWS V14.01,2013-05-28 22:19:00,
2013-05-28 18:20:00,75.2,-99.9,-100.00,SSE,165,7.8,7.8,-999,0.00,,---,0.99,VWS V14.01,2013-05-28 22:20:00,
2013-05-28 18:22:00,75.8,-99.9,-100.00,SSW,194,4.5,5.8,-999,0.00,,---,0.99,VWS V14.01,2013-05-28 22:22:00,
2013-05-28 18:24:00,75.8,-99.9,-100.00,SSE,152,7.5,7.5,-999,0.00,,---,0.99,VWS V14.01,2013-05-28 22:24:00,
2013-05-28 18:25:00,75.8,-99.9,-100.00,SSW,200,5.2,7.5,-999,0.00,,---,0.99,VWS V14.01,2013-05-28 22:25:00,
2013-05-28 18:28:00,75.8,-99.9,-100.00,South,191,3.5,10.7,-999,0.00,,---,0.99,VWS V14.01,2013-05-28 22:28:00,
2013-05-28 18:29:00,75.8,-99.9,-100.00,SSW,212,5.9,5.9,-999,0.00,,---,0.99,VWS V14.01,2013-05-28 22:29:00,
2013-05-28 18:30:00,75.5,-99.9,-100.00,South,190,4.7,5.9,-999,0.00,,---,0.99,VWS V14.01,2013-05-28 22:30:00,
2013-05-28 18:33:00,75.2,-99.9,-100.00,SSE,160,5.3,5.3,-999,0.00,,---,0.99,VWS V14.01,2013-05-28 22:33:00,
2013-05-28 18:34:00,75.5,-99.9,-100.00,South,186,0.0,3.4,-999,0.00,,---,0.99,VWS V14.01,2013-05-28 22:34:00,
2013-05-28 18:35:00,75.8,-99.9,-100.00,SW,214,3.4,3.4,-999,0.00,,---,0.99,VWS V14.01,2013-05-28 22:35:00,
2013-05-28 18:36:00,75.5,-99.9,-100.00,SW,233,3.4,4.7,-999,0.00,,---,0.99,VWS V14.01,2013-05-28 22:36:00,
2013-05-28 18:38:00,75.8,-99.9,-100.00,West,259,3.2,3.2,-999,0.00,,---,0.99,VWS V14.01,2013-05-28 22:38:00,
2013-05-28 18:39:00,75.2,-99.9,-100.00,South,191,2.9,3.5,-999,0.00,,---,0.99,VWS V14.01,2013-05-28 22:39:00,
2013-05-28 18:40:00,75.5,-99.9,-100.00,South,191,0.0,3.5,-999,0.00,,---,0.99,VWS V14.01,2013-05-28 22:40:00,
2013-05-28 18:41:00,75.2,-99.9,-100.00,South,191,0.0,0.0,-999,0.00,,---,0.99,VWS V14.01,2013-05-28 22:41:00,
2013-05-28 18:43:00,75.2,-99.9,-100.00,SE,142,3.4,4.8,-999,0.00,,---,0.99,VWS V14.01,2013-05-28 22:43:00,
2013-05-28 18:45:00,75.2,-99.9,-100.00,SW,221,0.0,0.0,-999,0.00,,---,0.99,VWS V14.01,2013-05-28 22:45:00,
2013-05-28 18:46:00,75.5,-99.9,-100.00,SSW,197,3.0,4.4,-999,0.00,,---,0.99,VWS V14.01,2013-05-28 22:46:00,
2013-05-28 18:48:00,75.2,-99.9,-100.00,SW,233,3.4,3.4,-999,0.00,,---,0.99,VWS V14.01,2013-05-28 22:48:00,
2013-05-28 18:50:00,74.9,-99.9,-100.00,SW,221,0.0,0.0,-999,0.00,,---,0.99,VWS V14.01,2013-05-28 22:50:00,
2013-05-28 18:51:00,75.2,-99.9,-100.00,SW,221,0.0,0.0,-999,0.00,,---,0.99,VWS V14.01,2013-05-28 22:51:00,
2013-05-28 18:53:00,74.9,-99.9,-100.00,SE,141,3.4,3.4,-999,0.00,,---,0.99,VWS V14.01,2013-05-28 22:53:00,
2013-05-28 18:55:00,74.9,-99.9,-100.00,SW,217,0.0,2.7,-999,0.00,,---,0.99,VWS V14.01,2013-05-28 22:55:00,
2013-05-28 18:56:00,74.9,-99.9,-100.00,WSW,250,4.3,4.3,-999,0.00,,---,0.99,VWS V14.01,2013-05-28 22:56:00,
2013-05-28 18:58:00,75.5,-99.9,-100.00,SW,231,3.0,4.4,-999,0.00,,---,0.99,VWS V14.01,2013-05-28 22:58:00,
2013-05-28 19:00:00,75.5,-99.9,-100.00,SSW,200,3.3,5.6,-999,0.00,,---,0.99,VWS V14.01,2013-05-28 23:00:00,
2013-05-28 19:01:00,74.9,-99.9,-100.00,South,188,2.7,3.1,-999,0.00,,---,0.99,VWS V14.01,2013-05-28 23:01:00,
2013-05-28 19:02:00,74.9,-99.9,-100.00,South,188,0.0,3.1,-999,0.00,,---,0.99,VWS V14.01,2013-05-28 23:02:00,
2013-05-28 19:04:00,74.9,-99.9,-100.00,SSE,158,0.0,4.8,-999,0.00,,---,0.99,VWS V14.01,2013-05-28 23:04:00,
2013-05-28 19:05:00,74.9,-99.9,-100.00,WSW,248,8.0,8.0,-999,0.00,,---,0.99,VWS V14.01,2013-05-28 23:05:00,
2013-05-28 19:06:00,74.2,-99.9,-100.00,South,188,2.9,8.0,-999,0.00,,---,0.99,VWS V14.01,2013-05-28 23:06:00,
2013-05-28 19:07:00,74.9,-99.9,-100.00,South,187,0.0,5.9,-999,0.00,,---,0.99,VWS V14.01,2013-05-28 23:07:00,
2013-05-28 19:09:00,74.9,-99.9,-100.00,SW,236,0.0,0.0,-999,0.00,,---,0.99,VWS V14.01,2013-05-28 23:09:00,
2013-05-28 19:10:00,74.9,-99.9,-100.00,SSW,194,5.9,7.7,-999,0.00,,---,0.99,VWS V14.01,2013-05-28 23:10:00,
2013-05-28 19:11:00,74.9,-99.9,-100.00,SSW,198,3.2,7.7,-999,0.00,,---,0.99,VWS V14.01,2013-05-28 23:11:00,
2013-05-28 19:12:00,74.6,-99.9,-100.00,SW,232,4.2,4.4,-999,0.00,,---,0.99,VWS V14.01,2013-05-28 23:12:00,
2013-05-28 19:14:00,74.2,-99.9,-100.00,SW,217,6.3,7.0,-999,0.00,,---,0.99,VWS V14.01,2013-05-28 23:14:00,
2013-05-28 19:15:00,74.6,-99.9,-100.00,SSW,194,3.2,5.5,-999,0.00,,---,0.99,VWS V14.01,2013-05-28 23:15:00,
2013-05-28 19:16:00,73.9,-99.9,-100.00,SW,228,3.4,4.3,-999,0.00,,---,0.99,VWS V14.01,2013-05-28 23:16:00,
2013-05-28 19:17:00,74.2,-99.9,-100.00,WSW,249,3.4,4.3,-999,0.00,,---,0.99,VWS V14.01,2013-05-28 23:17:00,
2013-05-28 19:19:00,74.6,-99.9,-100.00,SW,235,6.4,6.4,-999,0.00,,---,0.99,VWS V14.01,2013-05-28 23:19:00,
2013-05-28 19:20:00,74.9,-99.9,-100.00,SE,142,0.0,2.9,-999,0.00,,---,0.99,VWS V14.01,2013-05-28 23:20:00,
2013-05-28 19:21:00,74.9,-99.9,-100.00,South,173,5.8,5.8,-999,0.00,,---,0.99,VWS V14.01,2013-05-28 23:21:00,
2013-05-28 19:22:00,74.6,-99.9,-100.00,South,177,1.9,6.3,-999,0.00,,---,0.99,VWS V14.01,2013-05-28 23:22:00,
2013-05-28 19:24:00,74.9,-99.9,-100.00,South,191,6.1,7.6,-999,0.00,,---,0.99,VWS V14.01,2013-05-28 23:24:00,
2013-05-28 19:25:00,75.2,-99.9,-100.00,SSE,166,3.0,5.0,-999,0.00,,---,0.99,VWS V14.01,2013-05-28 23:25:00,
2013-05-28 19:26:00,74.9,-99.9,-100.00,South,181,4.5,5.3,-999,0.00,,---,0.99,VWS V14.01,2013-05-28 23:26:00,
2013-05-28 19:27:00,74.9,-99.9,-100.00,WSW,257,3.4,4.2,-999,0.00,,---,0.99,VWS V14.01,2013-05-28 23:27:00,
2013-05-28 19:28:00,74.6,-99.9,-100.00,SSE,159,5.6,5.6,-999,0.00,,---,0.99,VWS V14.01,2013-05-28 23:28:00,
2013-05-28 19:29:00,74.9,-99.9,-100.00,SSW,205,8.5,8.5,-999,0.00,,---,0.99,VWS V14.01,2013-05-28 23:29:00,
2013-05-28 19:31:00,74.9,-99.9,-100.00,SE,135,3.2,6.5,-999,0.00,,---,0.99,VWS V14.01,2013-05-28 23:31:00,
2013-05-28 19:32:00,74.9,-99.9,-100.00,South,180,4.3,6.0,-999,0.00,,---,0.99,VWS V14.01,2013-05-28 23:32:00,
2013-05-28 19:33:00,75.2,-99.9,-100.00,SSW,200,3.4,6.0,-999,0.00,,---,0.99,VWS V14.01,2013-05-28 23:33:00,
2013-05-28 19:34:00,74.9,-99.9,-100.00,WSW,257,3.2,6.0,-999,0.00,,---,0.99,VWS V14.01,2013-05-28 23:34:00,
2013-05-28 19:36:00,75.2,-99.9,-100.00,SSW,195,9.0,12.7,-999,0.00,,---,0.99,VWS V14.01,2013-05-28 23:36:00,
2013-05-28 19:37:00,75.8,-99.9,-100.00,SSW,202,5.6,12.7,-999,0.00,,---,0.99,VWS V14.01,2013-05-28 23:37:00,
2013-05-28 19:38:00,75.8,-99.9,-100.00,SW,229,7.8,11.2,-999,0.00,,---,0.99,VWS V14.01,2013-05-28 23:38:00,
2013-05-28 19:39:00,75.8,-99.9,-100.00,WSW,250,5.2,8.7,-999,0.00,,---,0.99,VWS V14.01,2013-05-28 23:39:00,
2013-05-28 19:41:00,75.5,-99.9,-100.00,SW,231,3.4,4.8,-999,0.00,,---,0.99,VWS V14.01,2013-05-28 23:41:00,
2013-05-28 19:42:00,75.8,-99.9,-100.00,SE,146,5.5,5.8,-999,0.00,,---,0.99,VWS V14.01,2013-05-28 23:42:00,
2013-05-28 19:43:00,74.9,-99.9,-100.00,South,187,8.6,8.8,-999,0.00,,---,0.99,VWS V14.01,2013-05-28 23:43:00,
2013-05-28 19:44:00,75.8,-99.9,-100.00,SSW,210,7.1,7.1,-999,0.00,,---,0.99,VWS V14.01,2013-05-28 23:44:00,
2013-05-28 19:46:00,75.8,-99.9,-100.00,SE,136,5.9,6.2,-999,0.00,,---,0.99,VWS V14.01,2013-05-28 23:46:00,
2013-05-28 19:47:00,75.8,-99.9,-100.00,SW,222,7.1,7.1,-999,0.00,,---,0.99,VWS V14.01,2013-05-28 23:47:00,
2013-05-28 19:48:00,75.5,-99.9,-100.00,SW,231,5.8,8.5,-999,0.00,,---,0.99,VWS V14.01,2013-05-28 23:48:00,
2013-05-28 19:50:00,74.9,-99.9,-100.00,WSW,245,4.2,5.7,-999,0.00,,---,0.99,VWS V14.01,2013-05-28 23:50:00,
2013-05-28 19:51:00,74.9,-99.9,-100.00,SSE,158,4.3,4.5,-999,0.00,,---,0.99,VWS V14.01,2013-05-28 23:51:00,
2013-05-28 19:52:00,74.9,-99.9,-100.00,South,177,8.6,8.6,-999,0.00,,---,0.99,VWS V14.01,2013-05-28 23:52:00,
2013-05-28 19:53:00,74.9,-99.9,-100.00,SW,236,6.5,7.6,-999,0.00,,---,0.99,VWS V14.01,2013-05-28 23:53:00,
2013-05-28 19:55:00,74.9,-99.9,-100.00,SSW,202,4.5,5.1,-999,0.00,,---,0.99,VWS V14.01,2013-05-28 23:55:00,
2013-05-28 19:56:00,74.9,-99.9,-100.00,SW,217,3.4,4.5,-999,0.00,,---,0.99,VWS V14.01,2013-05-28 23:56:00,
2013-05-28 19:57:00,74.9,-99.9,-100.00,South,191,6.0,7.5,-999,0.00,,---,0.99,VWS V14.01,2013-05-28 23:57:00,
2013-05-28 19:58:00,74.2,-99.9,-100.00,SSE,167,3.5,7.0,-999,0.00,,---,0.99,VWS V14.01,2013-05-28 23:58:00,
2013-05-28 20:00:00,74.2,-99.9,-100.00,SW,219,4.3,5.6,-999,0.00,,---,0.99,VWS V14.01,2013-05-29 00:00:00,
2013-05-28 20:01:00,73.9,-99.9,-100.00,WSW,250,5.6,5.6,-999,0.00,,---,0.99,VWS V14.01,2013-05-29 00:01:00,
2013-05-28 20:02:00,73.9,-99.9,-100.00,SW,229,0.0,5.6,-999,0.00,,---,0.99,VWS V14.01,2013-05-29 00:02:00,
2013-05-28 20:03:00,73.9,-99.9,-100.00,SW,224,5.1,8.8,-999,0.00,,---,0.99,VWS V14.01,2013-05-29 00:03:00,
2013-05-28 20:05:00,74.9,-99.9,-100.00,SW,224,4.5,8.2,-999,0.00,,---,0.99,VWS V14.01,2013-05-29 00:05:00,
2013-05-28 20:06:00,74.2,-99.9,-100.00,SW,236,4.5,5.6,-999,0.00,,---,0.99,VWS V14.01,2013-05-29 00:06:00,
2013-05-28 20:07:00,74.2,-99.9,-100.00,SSW,193,7.5,7.5,-999,0.00,,---,0.99,VWS V14.01,2013-05-29 00:07:00,
2013-05-28 20:08:00,74.6,-99.9,-100.00,South,186,7.0,9.4,-999,0.00,,---,0.99,VWS V14.01,2013-05-29 00:08:00,
2013-05-28 20:10:00,74.9,-99.9,-100.00,SW,228,7.1,7.1,-999,0.00,,---,0.99,VWS V14.01,2013-05-29 00:10:00,
2013-05-28 20:12:00,74.6,-99.9,-100.00,SSW,202,6.4,9.6,-999,0.00,,---,0.99,VWS V14.01,2013-05-29 00:12:00,
2013-05-28 20:13:00,74.2,-99.9,-100.00,SSW,193,6.5,6.5,-999,0.00,,---,0.99,VWS V14.01,2013-05-29 00:13:00,
2013-05-28 20:15:00,73.9,-99.9,-100.00,SSW,212,7.0,7.8,-999,0.00,,---,0.99,VWS V14.01,2013-05-29 00:15:00,
2013-05-28 20:17:00,74.2,-99.9,-100.00,SSW,212,3.5,7.0,-999,0.00,,---,0.99,VWS V14.01,2013-05-29 00:17:00,
2013-05-28 20:18:00,74.2,-99.9,-100.00,SSE,165,8.5,8.5,-999,0.00,,---,0.99,VWS V14.01,2013-05-29 00:18:00,
2013-05-28 20:21:00,74.2,-99.9,-100.00,WSW,242,11.0,11.6,-999,0.00,,---,0.99,VWS V14.01,2013-05-29 00:21:00,
2013-05-28 20:22:00,74.2,-99.9,-100.00,SSE,150,5.2,9.0,-999,0.00,,---,0.99,VWS V14.01,2013-05-29 00:22:00,
2013-05-28 20:24:00,74.6,-99.9,-100.00,WSW,257,5.4,5.8,-999,0.00,,---,0.99,VWS V14.01,2013-05-29 00:24:00,
2013-05-28 20:26:00,74.6,-99.9,-100.00,SW,214,6.4,9.8,-999,0.00,,---,0.99,VWS V14.01,2013-05-29 00:26:00,
2013-05-28 20:27:00,74.9,-99.9,-100.00,SW,225,11.4,11.4,-999,0.00,,---,0.99,VWS V14.01,2013-05-29 00:27:00,
2013-05-28 20:29:00,74.9,-99.9,-100.00,SW,235,8.7,9.4,-999,0.00,,---,0.99,VWS V14.01,2013-05-29 00:29:00,
2013-05-28 20:31:00,74.6,-99.9,-100.00,SSW,210,9.9,11.0,-999,0.00,,---,0.99,VWS V14.01,2013-05-29 00:31:00,
2013-05-28 20:32:00,74.6,-99.9,-100.00,SW,233,6.3,13.0,-999,0.00,,---,0.99,VWS V14.01,2013-05-29 00:32:00,
2013-05-28 20:34:00,74.2,-99.9,-100.00,SSW,210,7.8,8.6,-999,0.00,,---,0.99,VWS V14.01,2013-05-29 00:34:00,
2013-05-28 20:36:00,73.9,-99.9,-100.00,WSW,238,6.4,8.8,-999,0.00,,---,0.99,VWS V14.01,2013-05-29 00:36:00,
2013-05-28 20:37:00,73.9,-99.9,-100.00,SW,224,7.8,11.6,-999,0.00,,---,0.99,VWS V14.01,2013-05-29 00:37:00,
2013-05-28 20:39:00,74.9,-99.9,-100.00,WSW,239,4.9,12.9,-999,0.00,,---,0.99,VWS V14.01,2013-05-29 00:39:00,
2013-05-28 20:40:00,74.2,-99.9,-100.00,WSW,248,6.5,8.4,-999,0.00,,---,0.99,VWS V14.01,2013-05-29 00:40:00,
2013-05-28 20:42:00,74.6,-99.9,-100.00,SW,231,6.1,6.1,-999,0.00,,---,0.99,VWS V14.01,2013-05-29 00:42:00,
2013-05-28 20:43:00,73.9,-99.9,-100.00,WSW,239,3.5,9.1,-999,0.00,,---,0.99,VWS V14.01,2013-05-29 00:43:00,
2013-05-28 20:44:00,73.9,-99.9,-100.00,SW,214,8.1,8.5,-999,0.00,,---,0.99,VWS V14.01,2013-05-29 00:44:00,
2013-05-28 20:45:00,74.6,-99.9,-100.00,SW,224,4.7,8.1,-999,0.00,,---,0.99,VWS V14.01,2013-05-29 00:45:00,
2013-05-28 20:47:00,74.6,-99.9,-100.00,WSW,256,5.3,8.7,-999,0.00,,---,0.99,VWS V14.01,2013-05-29 00:47:00,
2013-05-28 20:48:00,73.9,-99.9,-100.00,SW,233,6.2,6.8,-999,0.00,,---,0.99,VWS V14.01,2013-05-29 00:48:00,
2013-05-28 20:49:00,73.9,-99.9,-100.00,SW,225,4.6,8.0,-999,0.00,,---,0.99,VWS V14.01,2013-05-29 00:49:00,
2013-05-28 20:50:00,73.9,-99.9,-100.00,SW,226,6.7,10.4,-999,0.00,,---,0.99,VWS V14.01,2013-05-29 00:50:00,
2013-05-28 20:52:00,73.9,-99.9,-100.00,WSW,239,9.2,9.2,-999,0.00,,---,0.99,VWS V14.01,2013-05-29 00:52:00,
2013-05-28 20:53:00,73.9,-99.9,-100.00,WSW,253,7.1,8.0,-999,0.00,,---,0.99,VWS V14.01,2013-05-29 00:53:00,
2013-05-28 20:54:00,73.6,-99.9,-100.00,SSW,204,4.6,5.5,-999,0.00,,---,0.99,VWS V14.01,2013-05-29 00:54:00,
2013-05-28 20:56:00,73.9,-99.9,-100.00,SSW,197,5.7,6.9,-999,0.00,,---,0.99,VWS V14.01,2013-05-29 00:56:00,
2013-05-28 20:57:00,73.9,-99.9,-100.00,SSW,200,3.2,6.1,-999,0.00,,---,0.99,VWS V14.01,2013-05-29 00:57:00,
2013-05-28 20:58:00,73.9,-99.9,-100.00,SSW,204,5.1,5.8,-999,0.00,,---,0.99,VWS V14.01,2013-05-29 00:58:00,
2013-05-28 21:00:00,73.9,-99.9,-100.00,WSW,240,5.3,6.8,-999,0.00,,---,0.99,VWS V14.01,2013-05-29 01:00:00,
2013-05-28 21:01:00,73.9,-99.9,-100.00,WSW,246,4.3,6.0,-999,0.00,,---,0.99,VWS V14.01,2013-05-29 01:01:00,
2013-05-28 21:02:00,73.9,-99.9,-100.00,WSW,250,6.3,6.3,-999,0.00,,---,0.99,VWS V14.01,2013-05-29 01:02:00,
2013-05-28 21:03:00,73.6,-99.9,-100.00,WSW,250,6.5,6.5,-999,0.00,,---,0.99,VWS V14.01,2013-05-29 01:03:00,
2013-05-28 21:05:00,73.6,-99.9,-100.00,SE,141,7.1,7.1,-999,0.00,,---,0.99,VWS V14.01,2013-05-29 01:05:00,
2013-05-28 21:06:00,73.9,-99.9,-100.00,SW,215,5.9,7.5,-999,0.00,,---,0.99,VWS V14.01,2013-05-29 01:06:00,
2013-05-28 21:07:00,73.9,-99.9,-100.00,South,183,2.8,5.3,-999,0.00,,---,0.99,VWS V14.01,2013-05-29 01:07:00,
2013-05-28 21:08:00,73.9,-99.9,-100.00,South,183,3.2,5.3,-999,0.00,,---,0.99,VWS V14.01,2013-05-29 01:08:00,
2013-05-28 21:10:00,73.6,-99.9,-100.00,SW,233,5.1,7.3,-999,0.00,,---,0.99,VWS V14.01,2013-05-29 01:10:00,
2013-05-28 21:11:00,73.3,-99.9,-100.00,SSW,211,7.1,7.3,-999,0.00,,---,0.99,VWS V14.01,2013-05-29 01:11:00,
2013-05-28 21:12:00,73.9,-99.9,-100.00,SW,233,7.1,7.1,-999,0.00,,---,0.99,VWS V14.01,2013-05-29 01:12:00,
2013-05-28 21:13:00,73.9,-99.9,-100.00,SW,231,6.3,7.1,-999,0.00,,---,0.99,VWS V14.01,2013-05-29 01:13:00,
2013-05-28 21:14:00,73.9,-99.9,-100.00,SW,233,5.3,7.0,-999,0.00,,---,0.99,VWS V14.01,2013-05-29 01:14:00,
2013-05-28 21:15:00,73.0,-99.9,-100.00,SW,214,7.0,8.6,-999,0.00,,---,0.99,VWS V14.01,2013-05-29 01:15:00,
2013-05-28 21:16:00,73.3,-99.9,-100.00,South,187,2.9,6.1,-999,0.00,,---,0.99,VWS V14.01,2013-05-29 01:16:00,
2013-05-28 21:17:00,73.0,-99.9,-100.00,WSW,252,4.9,5.4,-999,0.00,,---,0.99,VWS V14.01,2013-05-29 01:17:00,
2013-05-28 21:18:00,73.0,-99.9,-100.00,SW,221,6.8,7.6,-999,0.00,,---,0.99,VWS V14.01,2013-05-29 01:18:00,
2013-05-28 21:19:00,73.0,-99.9,-100.00,SSW,200,8.5,10.3,-999,0.00,,---,0.99,VWS V14.01,2013-05-29 01:19:00,
2013-05-28 21:20:00,73.0,-99.9,-100.00,SW,221,4.2,4.6,-999,0.00,,---,0.99,VWS V14.01,2013-05-29 01:20:00,
2013-05-28 21:21:00,72.3,-99.9,-100.00,SSW,208,7.0,7.0,-999,0.00,,---,0.99,VWS V14.01,2013-05-29 01:21:00,
2013-05-28 21:23:00,73.0,-99.9,-100.00,SW,235,6.2,9.8,-999,0.00,,---,0.99,VWS V14.01,2013-05-29 01:23:00,
2013-05-28 21:24:00,73.3,-99.9,-100.00,WSW,243,6.8,7.4,-999,0.00,,---,0.99,VWS V14.01,2013-05-29 01:24:00,
2013-05-28 21:25:00,73.0,-99.9,-100.00,SW,218,7.2,7.2,-999,0.00,,---,0.99,VWS V14.01,2013-05-29 01:25:00,
2013-05-28 21:27:00,73.6,-99.9,-100.00,South,170,10.0,10.0,-999,0.00,,---,0.99,VWS V14.01,2013-05-29 01:27:00,
2013-05-28 21:28:00,73.9,-99.9,-100.00,SW,222,4.4,12.0,-999,0.00,,---,0.99,VWS V14.01,2013-05-29 01:28:00,
2013-05-28 21:29:00,73.0,-99.9,-100.00,SW,222,5.7,9.7,-999,0.00,,---,0.99,VWS V14.01,2013-05-29 01:29:00,
2013-05-28 21:30:00,73.6,-99.9,-100.00,SSW,208,6.5,8.7,-999,0.00,,---,0.99,VWS V14.01,2013-05-29 01:30:00,
2013-05-28 21:32:00,73.6,-99.9,-100.00,SW,228,7.3,7.3,-999,0.00,,---,0.99,VWS V14.01,2013-05-29 01:32:00,
2013-05-28 21:33:00,73.0,-99.9,-100.00,SW,226,10.9,10.9,-999,0.00,,---,0.99,VWS V14.01,2013-05-29 01:33:00,
2013-05-28 21:34:00,73.3,-99.9,-100.00,WSW,257,7.7,10.9,-999,0.00,,---,0.99,VWS V14.01,2013-05-29 01:34:00,
2013-05-28 21:35:00,73.6,-99.9,-100.00,SSW,207,6.1,9.1,-999,0.00,,---,0.99,VWS V14.01,2013-05-29 01:35:00,
2013-05-28 21:37:00,73.9,-99.9,-100.00,SW,217,7.0,7.0,-999,0.00,,---,0.99,VWS V14.01,2013-05-29 01:37:00,
2013-05-28 21:38:00,73.6,-99.9,-100.00,SW,225,5.8,6.0,-999,0.00,,---,0.99,VWS V14.01,2013-05-29 01:38:00,
2013-05-28 21:39:00,73.6,-99.9,-100.00,SW,222,7.8,7.8,-999,0.00,,---,0.99,VWS V14.01,2013-05-29 01:39:00,
2013-05-28 21:40:00,73.3,-99.9,-100.00,South,190,3.5,8.1,-999,0.00,,---,0.99,VWS V14.01,2013-05-29 01:40:00,
2013-05-28 21:42:00,73.3,-99.9,-100.00,SW,233,6.7,8.8,-999,0.00,,---,0.99,VWS V14.01,2013-05-29 01:42:00,
2013-05-28 21:43:00,73.3,-99.9,-100.00,SW,228,5.3,8.5,-999,0.00,,---,0.99,VWS V14.01,2013-05-29 01:43:00,
2013-05-28 21:44:00,73.3,-99.9,-100.00,SSW,201,5.0,8.6,-999,0.00,,---,0.99,VWS V14.01,2013-05-29 01:44:00,
2013-05-28 21:46:00,73.6,-99.9,-100.00,SW,221,4.8,5.4,-999,0.00,,---,0.99,VWS V14.01,2013-05-29 01:46:00,
2013-05-28 21:47:00,73.3,-99.9,-100.00,SSW,211,4.3,8.2,-999,0.00,,---,0.99,VWS V14.01,2013-05-29 01:47:00,
2013-05-28 21:49:00,73.6,-99.9,-100.00,SW,217,9.7,9.7,-999,0.00,,---,0.99,VWS V14.01,2013-05-29 01:49:00,
2013-05-28 21:51:00,73.3,-99.9,-100.00,SW,214,10.9,10.9,-999,0.00,,---,0.99,VWS V14.01,2013-05-29 01:51:00,
2013-05-28 21:52:00,73.3,-99.9,-100.00,SW,229,12.1,13.0,-999,0.00,,---,0.99,VWS V14.01,2013-05-29 01:52:00,
2013-05-28 21:54:00,73.9,-99.9,-100.00,West,269,5.3,7.1,-999,0.00,,---,0.99,VWS V14.01,2013-05-29 01:54:00,
2013-05-28 21:55:00,73.3,-99.9,-100.00,WSW,239,9.1,9.1,-999,0.00,,---,0.99,VWS V14.01,2013-05-29 01:55:00,
2013-05-28 21:56:00,73.9,-99.9,-100.00,SSW,194,5.3,7.5,-999,0.00,,---,0.99,VWS V14.01,2013-05-29 01:56:00,
2013-05-28 21:57:00,73.3,-99.9,-100.00,South,184,4.3,7.7,-999,0.00,,---,0.99,VWS V14.01,2013-05-29 01:57:00,
2013-05-28 21:59:00,73.3,-99.9,-100.00,West,263,5.7,8.7,-999,0.00,,---,0.99,VWS V14.01,2013-05-29 01:59:00,
2013-05-28 22:00:00,73.6,-99.9,-100.00,SW,224,6.2,9.6,-999,0.00,,---,0.99,VWS V14.01,2013-05-29 02:00:00,
2013-05-28 22:01:00,73.3,-99.9,-100.00,SW,219,5.1,12.7,-999,0.00,,---,0.99,VWS V14.01,2013-05-29 02:01:00,
2013-05-28 22:02:00,73.3,-99.9,-100.00,SW,221,9.8,10.6,-999,0.00,,---,0.99,VWS V14.01,2013-05-29 02:02:00,
2013-05-28 22:04:00,73.9,-99.9,-100.00,SSW,212,4.3,7.3,-999,0.00,,---,0.99,VWS V14.01,2013-05-29 02:04:00,
2013-05-28 22:05:00,73.3,-99.9,-100.00,SW,226,6.8,7.1,-999,0.00,,---,0.99,VWS V14.01,2013-05-29 02:05:00,
2013-05-28 22:06:00,73.0,-99.9,-100.00,South,179,4.6,8.6,-999,0.00,,---,0.99,VWS V14.01,2013-05-29 02:06:00,
2013-05-28 22:07:00,73.6,-99.9,-100.00,SSW,198,6.1,10.1,-999,0.00,,---,0.99,VWS V14.01,2013-05-29 02:07:00,
2013-05-28 22:09:00,73.0,-99.9,-100.00,SW,233,3.4,9.1,-999,0.00,,---,0.99,VWS V14.01,2013-05-29 02:09:00,
2013-05-28 22:10:00,73.3,-99.9,-100.00,WSW,253,8.3,8.3,-999,0.00,,---,0.99,VWS V14.01,2013-05-29 02:10:00,
2013-05-28 22:11:00,73.6,-99.9,-100.00,SW,222,7.1,8.3,-999,0.00,,---,0.99,VWS V14.01,2013-05-29 02:11:00,
2013-05-28 22:12:00,73.6,-99.9,-100.00,SSW,208,5.7,7.0,-999,0.00,,---,0.99,VWS V14.01,2013-05-29 02:12:00,
2013-05-28 22:14:00,73.0,-99.9,-100.00,SW,221,3.4,4.6,-999,0.00,,---,0.99,VWS V14.01,2013-05-29 02:14:00,
2013-05-28 22:15:00,73.0,-99.9,-100.00,SSW,212,5.5,5.5,-999,0.00,,---,0.99,VWS V14.01,2013-05-29 02:15:00,
2013-05-28 22:16:00,73.3,-99.9,-100.00,SW,222,8.2,8.2,-999,0.00,,---,0.99,VWS V14.01,2013-05-29 02:16:00,
2013-05-28 22:17:00,73.0,-99.9,-100.00,SSW,205,4.4,8.2,-999,0.00,,---,0.99,VWS V14.01,2013-05-29 02:17:00,
2013-05-28 22:19:00,72.7,-99.9,-100.00,WSW,248,5.8,5.8,-999,0.00,,---,0.99,VWS V14.01,2013-05-29 02:19:00,
2013-05-28 22:20:00,72.3,-99.9,-100.00,SW,231,7.5,7.5,-999,0.00,,---,0.99,VWS V14.01,2013-05-29 02:20:00,
2013-05-28 22:21:00,72.0,-99.9,-100.00,SW,233,5.3,7.5,-999,0.00,,---,0.99,VWS V14.01,2013-05-29 02:21:00,
2013-05-28 22:22:00,72.3,-99.9,-100.00,SSW,205,4.2,6.9,-999,0.00,,---,0.99,VWS V14.01,2013-05-29 02:22:00,
2013-05-28 22:24:00,72.7,-99.9,-100.00,WSW,252,5.5,6.5,-999,0.00,,---,0.99,VWS V14.01,2013-05-29 02:24:00,
2013-05-28 22:25:00,73.0,-99.9,-100.00,WSW,240,5.1,6.5,-999,0.00,,---,0.99,VWS V14.01,2013-05-29 02:25:00,
2013-05-28 22:26:00,72.7,-99.9,-100.00,SW,222,0.0,2.6,-999,0.00,,---,0.99,VWS V14.01,2013-05-29 02:26:00,
2013-05-28 22:27:00,72.3,-99.9,-100.00,SW,233,6.2,6.2,-999,0.00,,---,0.99,VWS V14.01,2013-05-29 02:27:00,
2013-05-28 22:29:00,72.0,-99.9,-100.00,SW,228,5.2,5.2,-999,0.00,,---,0.99,VWS V14.01,2013-05-29 02:29:00,
2013-05-28 22:30:00,72.0,-99.9,-100.00,WSW,239,4.2,5.2,-999,0.00,,---,0.99,VWS V14.01,2013-05-29 02:30:00,
2013-05-28 22:31:00,71.7,-99.9,-100.00,WSW,238,6.2,7.6,-999,0.00,,---,0.99,VWS V14.01,2013-05-29 02:31:00,
2013-05-28 22:32:00,72.0,-99.9,-100.00,SSW,212,0.0,0.0,-999,0.00,,---,0.99,VWS V14.01,2013-05-29 02:32:00,
2013-05-28 22:35:00,71.1,-99.9,-100.00,WSW,243,5.6,5.8,-999,0.00,,---,0.99,VWS V14.01,2013-05-29 02:35:00,
2013-05-28 22:36:00,71.7,-99.9,-100.00,WSW,243,6.4,7.0,-999,0.00,,---,0.99,VWS V14.01,2013-05-29 02:36:00,
2013-05-28 22:37:00,71.7,-99.9,-100.00,SSW,212,5.3,5.8,-999,0.00,,---,0.99,VWS V14.01,2013-05-29 02:37:00,
2013-05-28 22:40:00,72.0,-99.9,-100.00,SSW,205,7.1,7.8,-999,0.00,,---,0.99,VWS V14.01,2013-05-29 02:40:00,
2013-05-28 22:41:00,71.7,-99.9,-100.00,SW,226,6.3,6.3,-999,0.00,,---,0.99,VWS V14.01,2013-05-29 02:41:00,
2013-05-28 22:43:00,71.1,-99.9,-100.00,South,188,3.4,5.5,-999,0.00,,---,0.99,VWS V14.01,2013-05-29 02:43:00,
2013-05-28 22:45:00,72.0,-99.9,-100.00,SSE,163,0.0,5.8,-999,0.00,,---,0.99,VWS V14.01,2013-05-29 02:45:00,
2013-05-28 22:46:00,71.5,-99.9,-100.00,SSW,212,7.0,7.1,-999,0.00,,---,0.99,VWS V14.01,2013-05-29 02:46:00,
2013-05-28 22:48:00,71.1,-99.9,-100.00,SSW,200,6.5,6.6,-999,0.00,,---,0.99,VWS V14.01,2013-05-29 02:48:00,
2013-05-28 22:50:00,71.1,-99.9,-100.00,SSW,210,3.0,5.2,-999,0.00,,---,0.99,VWS V14.01,2013-05-29 02:50:00,
2013-05-28 22:51:00,71.5,-99.9,-100.00,SSW,212,4.2,6.5,-999,0.00,,---,0.99,VWS V14.01,2013-05-29 02:51:00,
2013-05-28 22:53:00,71.1,-99.9,-100.00,SW,236,3.5,6.8,-999,0.00,,---,0.99,VWS V14.01,2013-05-29 02:53:00,
2013-05-28 22:55:00,71.1,-99.9,-100.00,SW,231,5.0,7.3,-999,0.00,,---,0.99,VWS V14.01,2013-05-29 02:55:00,
2013-05-28 22:56:00,71.5,-99.9,-100.00,West,270,6.0,7.5,-999,0.00,,---,0.99,VWS V14.01,2013-05-29 02:56:00,
2013-05-28 22:58:00,70.5,-99.9,-100.00,SW,225,5.4,5.4,-999,0.00,,---,0.99,VWS V14.01,2013-05-29 02:58:00,
2013-05-28 23:00:00,71.1,-99.9,-100.00,SW,224,0.0,1.3,-999,0.00,,---,0.99,VWS V14.01,2013-05-29 03:00:00,
2013-05-28 23:01:00,71.1,-99.9,-100.00,WSW,255,4.9,4.9,-999,0.00,,---,0.99,VWS V14.01,2013-05-29 03:01:00,
2013-05-28 23:03:00,70.8,-99.9,-100.00,SSW,198,0.0,2.3,-999,0.00,,---,0.99,VWS V14.01,2013-05-29 03:03:00,
2013-05-28 23:05:00,70.8,-99.9,-100.00,South,191,3.4,6.8,-999,0.00,,---,0.99,VWS V14.01,2013-05-29 03:05:00,
2013-05-28 23:06:00,70.8,-99.9,-100.00,SE,141,3.5,4.5,-999,0.00,,---,0.99,VWS V14.01,2013-05-29 03:06:00,
2013-05-28 23:07:00,70.8,-99.9,-100.00,WSW,249,7.2,9.3,-999,0.00,,---,0.99,VWS V14.01,2013-05-29 03:07:00,
2013-05-28 23:08:00,71.1,-99.9,-100.00,SW,226,4.7,7.1,-999,0.00,,---,0.99,VWS V14.01,2013-05-29 03:08:00,
2013-05-28 23:10:00,71.1,-99.9,-100.00,WSW,256,3.5,5.7,-999,0.00,,---,0.99,VWS V14.01,2013-05-29 03:10:00,
2013-05-28 23:11:00,71.1,-99.9,-100.00,SSW,205,4.2,6.0,-999,0.00,,---,0.99,VWS V14.01,2013-05-29 03:11:00,
2013-05-28 23:12:00,70.5,-99.9,-100.00,SW,236,6.1,6.8,-999,0.00,,---,0.99,VWS V14.01,2013-05-29 03:12:00,
2013-05-28 23:13:00,70.2,-99.9,-100.00,SSW,205,5.2,5.7,-999,0.00,,---,0.99,VWS V14.01,2013-05-29 03:13:00,
2013-05-28 23:15:00,70.9,-99.9,-100.00,SW,221,3.4,5.6,-999,0.00,,---,0.99,VWS V14.01,2013-05-29 03:15:00,
2013-05-28 23:16:00,70.2,-99.9,-100.00,SW,235,7.7,7.7,-999,0.00,,---,0.99,VWS V14.01,2013-05-29 03:16:00,
2013-05-28 23:17:00,70.2,-99.9,-100.00,SW,232,3.2,7.7,-999,0.00,,---,0.99,VWS V14.01,2013-05-29 03:17:00,
2013-05-28 23:19:00,70.6,-99.9,-100.00,SSW,201,0.0,0.0,-999,0.00,,---,0.99,VWS V14.01,2013-05-29 03:19:00,
2013-05-28 23:20:00,70.2,-99.9,-100.00,SSW,201,0.0,0.0,-999,0.00,,---,0.99,VWS V14.01,2013-05-29 03:20:00,
2013-05-28 23:21:00,70.3,-99.9,-100.00,SSW,201,0.0,0.0,-999,0.00,,---,0.99,VWS V14.01,2013-05-29 03:21:00,
2013-05-28 23:22:00,70.3,-99.9,-100.00,SSW,201,0.0,0.0,-999,0.00,,---,0.99,VWS V14.01,2013-05-29 03:22:00,
2013-05-28 23:24:00,69.9,-99.9,-100.00,SSW,201,0.0,0.0,-999,0.00,,---,0.99,VWS V14.01,2013-05-29 03:24:00,
2013-05-28 23:25:00,70.2,-99.9,-100.00,SSW,205,0.0,0.0,-999,0.00,,---,0.99,VWS V14.01,2013-05-29 03:25:00,
2013-05-28 23:26:00,70.2,-99.9,-100.00,SW,222,0.0,0.0,-999,0.00,,---,0.99,VWS V14.01,2013-05-29 03:26:00,
2013-05-28 23:27:00,70.2,-99.9,-100.00,SW,222,0.0,0.0,-999,0.00,,---,0.99,VWS V14.01,2013-05-29 03:27:00,
2013-05-28 23:29:00,70.2,-99.9,-100.00,SW,222,0.0,0.0,-999,0.00,,---,0.99,VWS V14.01,2013-05-29 03:29:00,
2013-05-28 23:31:00,70.2,-99.9,-100.00,ENE,76,2.3,2.3,-999,0.00,,---,0.99,VWS V14.01,2013-05-29 03:31:00,
2013-05-28 23:32:00,70.2,-99.9,-100.00,ENE,76,0.0,2.9,-999,0.00,,---,0.99,VWS V14.01,2013-05-29 03:32:00,
2013-05-28 23:33:00,70.2,-99.9,-100.00,South,190,0.0,2.7,-999,0.00,,---,0.99,VWS V14.01,2013-05-29 03:33:00,
2013-05-28 23:34:00,70.2,-99.9,-100.00,South,190,0.0,0.0,-999,0.00,,---,0.99,VWS V14.01,2013-05-29 03:34:00,
2013-05-28 23:36:00,69.4,-99.9,-100.00,South,190,0.0,0.0,-999,0.00,,---,0.99,VWS V14.01,2013-05-29 03:36:00,
2013-05-28 23:37:00,69.4,-99.9,-100.00,SSW,194,6.0,6.0,-999,0.00,,---,0.99,VWS V14.01,2013-05-29 03:37:00,
2013-05-28 23:38:00,69.6,-99.9,-100.00,SSE,167,0.0,5.2,-999,0.00,,---,0.99,VWS V14.01,2013-05-29 03:38:00,
2013-05-28 23:39:00,70.2,-99.9,-100.00,SSE,167,0.0,0.0,-999,0.00,,---,0.99,VWS V14.01,2013-05-29 03:39:00,
2013-05-28 23:42:00,69.4,-99.9,-100.00,SSE,167,0.0,0.0,-999,0.00,,---,0.99,VWS V14.01,2013-05-29 03:42:00,
2013-05-28 23:43:00,69.4,-99.9,-100.00,SSE,167,0.0,0.0,-999,0.00,,---,0.99,VWS V14.01,2013-05-29 03:43:00,
2013-05-28 23:44:00,69.4,-99.9,-100.00,SW,215,3.4,3.4,-999,0.00,,---,0.99,VWS V14.01,2013-05-29 03:44:00,
2013-05-28 23:47:00,69.4,-99.9,-100.00,SW,236,3.0,5.4,-999,0.00,,---,0.99,VWS V14.01,2013-05-29 03:47:00,
2013-05-28 23:48:00,69.4,-99.9,-100.00,SW,236,0.0,3.0,-999,0.00,,---,0.99,VWS V14.01,2013-05-29 03:48:00,
2013-05-28 23:49:00,69.6,-99.9,-100.00,SW,236,0.0,0.0,-999,0.00,,---,0.99,VWS V14.01,2013-05-29 03:49:00,
2013-05-28 23:53:00,69.4,-99.9,-100.00,SW,236,0.0,0.0,-999,0.00,,---,0.99,VWS V14.01,2013-05-29 03:53:00,
2013-05-28 23:54:00,69.4,-99.9,-100.00,WSW,243,2.8,4.6,-999,0.00,,---,0.99,VWS V14.01,2013-05-29 03:54:00,
2013-05-28 23:58:00,69.4,-99.9,-100.00,SW,233,3.2,5.7,-999,0.00,,---,0.99,VWS V14.01,2013-05-29 03:58:00,
2013-05-28 23:59:00,69.4,-99.9,-100.00,SW,236,0.0,5.7,-999,0.00,,---,0.00,VWS V14.01,2013-05-29 03:59:00,